Time,TemperatureF,DewpointF,PressureIn,WindDirection,WindDirectionDegrees,WindSpeedMPH,WindSpeedGustMPH,Humidity,HourlyPrecipIn,Conditions,Clouds,dailyrainin,SoftwareType,DateUTC
2013-05-04 00:01:00,64.3,44.2,29.93,ENE,60,5.0,5.0,48,0.00,,,0.00,Wunderground v.1.15,2013-05-04 04:01:00,
2013-05-04 00:02:00,64.2,44.1,29.93,NNE,26,4.0,5.0,48,0.00,,,0.00,Wunderground v.1.15,2013-05-04 04:02:00,
2013-05-04 00:04:00,64.2,43.5,29.92,NE,55,1.0,5.0,47,0.00,,,0.00,Wunderground v.1.15,2013-05-04 04:04:00,
2013-05-04 00:05:00,64.2,43.5,29.93,ENE,60,0.0,5.0,47,0.00,,,0.00,Wunderground v.1.15,2013-05-04 04:05:00,
2013-05-04 00:08:00,64.1,43.4,29.92,ENE,61,0.0,5.0,47,0.00,,,0.00,Wunderground v.1.15,2013-05-04 04:08:00,
2013-05-04 00:11:00,64.1,42.9,29.93,NE,45,3.0,6.0,46,0.00,,,0.00,Wunderground v.1.15,2013-05-04 04:11:00,
2013-05-04 00:12:00,64.1,42.9,29.92,NE,53,3.0,6.0,46,0.00,,,0.00,Wunderground v.1.15,2013-05-04 04:12:00,
2013-05-04 00:16:00,64.1,43.4,29.92,NNE,27,0.0,6.0,47,0.00,,,0.00,Wunderground v.1.15,2013-05-04 04:16:00,
2013-05-04 00:17:00,64.0,43.9,29.92,ENE,63,2.0,6.0,48,0.00,,,0.00,Wunderground v.1.15,2013-05-04 04:17:00,
2013-05-04 00:18:00,64.0,43.4,29.93,ENE,65,2.0,6.0,47,0.00,,,0.00,Wunderground v.1.15,2013-05-04 04:18:00,
2013-05-04 00:19:00,64.0,43.4,29.92,ENE,63,1.0,6.0,47,0.00,,,0.00,Wunderground v.1.15,2013-05-04 04:19:00,
2013-05-04 00:24:00,63.9,43.3,29.93,NE,46,1.0,2.0,47,0.00,,,0.00,Wunderground v.1.15,2013-05-04 04:24:00,
2013-05-04 00:25:00,63.9,43.8,29.92,NE,54,0.0,2.0,48,0.00,,,0.00,Wunderground v.1.15,2013-05-04 04:25:00,
2013-05-04 00:26:00,63.8,43.2,29.92,ENE,67,0.0,2.0,47,0.00,,,0.00,Wunderground v.1.15,2013-05-04 04:26:00,
2013-05-04 00:29:00,63.8,43.2,29.93,ENE,72,0.0,2.0,47,0.00,,,0.00,Wunderground v.1.15,2013-05-04 04:29:00,
2013-05-04 00:30:00,63.8,43.2,29.92,ENE,58,1.0,2.0,47,0.00,,,0.00,Wunderground v.1.15,2013-05-04 04:30:00,
2013-05-04 00:31:00,63.8,43.2,29.92,NE,37,7.0,7.0,47,0.00,,,0.00,Wunderground v.1.15,2013-05-04 04:31:00,
2013-05-04 00:32:00,63.8,42.6,29.92,ENE,66,3.0,7.0,46,0.00,,,0.00,Wunderground v.1.15,2013-05-04 04:32:00,
2013-05-04 00:34:00,63.9,42.7,29.92,ENE,61,0.0,7.0,46,0.00,,,0.00,Wunderground v.1.15,2013-05-04 04:34:00,
2013-05-04 00:35:00,63.9,43.3,29.92,ENE,61,0.0,7.0,47,0.00,,,0.00,Wunderground v.1.15,2013-05-04 04:35:00,
2013-05-04 00:40:00,63.9,42.7,29.93,NE,50,2.0,2.0,46,0.00,,,0.00,Wunderground v.1.15,2013-05-04 04:40:00,
2013-05-04 00:41:00,63.9,43.3,29.93,ENE,71,4.0,4.0,47,0.00,,,0.00,Wunderground v.1.15,2013-05-04 04:41:00,
2013-05-04 00:45:00,63.8,43.2,29.92,ESE,123,3.0,4.0,47,0.00,,,0.00,Wunderground v.1.15,2013-05-04 04:45:00,
2013-05-04 00:46:00,63.8,42.6,29.93,NE,37,2.0,4.0,46,0.00,,,0.00,Wunderground v.1.15,2013-05-04 04:46:00,
2013-05-04 00:47:00,63.8,43.2,29.92,ENE,63,4.0,4.0,47,0.00,,,0.00,Wunderground v.1.15,2013-05-04 04:47:00,
2013-05-04 00:52:00,63.7,43.6,29.93,ENE,71,3.0,3.0,48,0.00,,,0.00,Wunderground v.1.15,2013-05-04 04:52:00,
2013-05-04 00:53:00,63.6,43.5,29.93,ENE,71,2.0,3.0,48,0.00,,,0.00,Wunderground v.1.15,2013-05-04 04:53:00,
2013-05-04 00:55:00,63.5,43.4,29.92,ENE,57,2.0,4.0,48,0.00,,,0.00,Wunderground v.1.15,2013-05-04 04:55:00,
2013-05-04 00:58:00,63.5,42.9,29.92,NE,50,2.0,4.0,47,0.00,,,0.00,Wunderground v.1.15,2013-05-04 04:58:00,
2013-05-04 00:59:00,63.5,42.9,29.92,NE,52,1.0,4.0,47,0.00,,,0.00,Wunderground v.1.15,2013-05-04 04:59:00,
2013-05-04 01:03:00,63.5,43.4,29.93,ENE,71,2.0,3.0,48,0.00,,,0.00,Wunderground v.1.15,2013-05-04 05:03:00,
2013-05-04 01:04:00,63.5,43.4,29.93,ENE,68,3.0,3.0,48,0.00,,,0.00,Wunderground v.1.15,2013-05-04 05:04:00,
2013-05-04 01:08:00,63.4,43.4,29.93,ENE,69,0.0,7.0,48,0.00,,,0.00,Wunderground v.1.15,2013-05-04 05:08:00,
2013-05-04 01:09:00,63.4,43.4,29.93,ENE,58,3.0,7.0,48,0.00,,,0.00,Wunderground v.1.15,2013-05-04 05:09:00,
2013-05-04 01:10:00,63.3,43.8,29.93,ENE,59,2.0,2.0,49,0.00,,,0.00,Wunderground v.1.15,2013-05-04 05:10:00,
2013-05-04 01:13:00,63.3,43.8,29.93,NNE,33,0.0,2.0,49,0.00,,,0.00,Wunderground v.1.15,2013-05-04 05:13:00,
2013-05-04 01:15:00,63.2,44.2,29.93,NE,38,0.0,2.0,50,0.00,,,0.00,Wunderground v.1.15,2013-05-04 05:15:00,
2013-05-04 01:16:00,63.2,44.2,29.93,NE,42,2.0,2.0,50,0.00,,,0.00,Wunderground v.1.15,2013-05-04 05:16:00,
2013-05-04 01:18:00,63.0,44.1,29.93,NE,45,2.0,2.0,50,0.00,,,0.00,Wunderground v.1.15,2013-05-04 05:18:00,
2013-05-04 01:19:00,63.0,44.1,29.93,ENE,67,8.0,8.0,50,0.00,,,0.00,Wunderground v.1.15,2013-05-04 05:19:00,
2013-05-04 01:20:00,62.9,44.0,29.93,NNE,23,0.0,2.0,50,0.00,,,0.00,Wunderground v.1.15,2013-05-04 05:20:00,
2013-05-04 01:21:00,62.8,43.3,29.93,East,80,2.0,2.0,49,0.00,,,0.00,Wunderground v.1.15,2013-05-04 05:21:00,
2013-05-04 01:23:00,62.8,43.3,29.93,NE,52,2.0,2.0,49,0.00,,,0.00,Wunderground v.1.15,2013-05-04 05:23:00,
2013-05-04 01:24:00,62.9,43.4,29.93,ENE,61,0.0,2.0,49,0.00,,,0.00,Wunderground v.1.15,2013-05-04 05:24:00,
2013-05-04 01:25:00,62.9,44.0,29.93,NE,52,2.0,2.0,50,0.00,,,0.00,Wunderground v.1.15,2013-05-04 05:25:00,
2013-05-04 01:29:00,62.9,44.0,29.93,ENE,65,0.0,4.0,50,0.00,,,0.00,Wunderground v.1.15,2013-05-04 05:29:00,
2013-05-04 01:30:00,62.9,44.5,29.93,ENE,71,0.0,3.0,51,0.00,,,0.00,Wunderground v.1.15,2013-05-04 05:30:00,
2013-05-04 01:32:00,62.8,44.4,29.93,ENE,67,4.0,4.0,51,0.00,,,0.00,Wunderground v.1.15,2013-05-04 05:32:00,
2013-05-04 01:33:00,62.7,44.3,29.93,ENE,66,3.0,4.0,51,0.00,,,0.00,Wunderground v.1.15,2013-05-04 05:33:00,
2013-05-04 01:35:00,62.6,44.2,29.93,ENE,63,2.0,4.0,51,0.00,,,0.00,Wunderground v.1.15,2013-05-04 05:35:00,
2013-05-04 01:38:00,62.5,44.1,29.93,ENE,69,3.0,4.0,51,0.00,,,0.00,Wunderground v.1.15,2013-05-04 05:38:00,
2013-05-04 01:39:00,62.5,44.1,29.93,ENE,67,0.0,4.0,51,0.00,,,0.00,Wunderground v.1.15,2013-05-04 05:39:00,
2013-05-04 01:41:00,62.4,44.5,29.93,ENE,67,3.0,3.0,52,0.00,,,0.00,Wunderground v.1.15,2013-05-04 05:41:00,
2013-05-04 01:43:00,62.3,43.9,29.93,ENE,61,4.0,4.0,51,0.00,,,0.00,Wunderground v.1.15,2013-05-04 05:43:00,
2013-05-04 01:47:00,62.2,44.3,29.93,ENE,71,1.0,4.0,52,0.00,,,0.00,Wunderground v.1.15,2013-05-04 05:47:00,
2013-05-04 01:48:00,62.2,43.8,29.93,ENE,64,2.0,4.0,51,0.00,,,0.00,Wunderground v.1.15,2013-05-04 05:48:00,
2013-05-04 01:49:00,62.2,44.3,29.93,ENE,65,5.0,5.0,52,0.00,,,0.00,Wunderground v.1.15,2013-05-04 05:49:00,
2013-05-04 01:50:00,62.2,43.8,29.93,ENE,65,2.0,2.0,51,0.00,,,0.00,Wunderground v.1.15,2013-05-04 05:50:00,
2013-05-04 01:52:00,62.2,44.3,29.93,ENE,69,4.0,4.0,52,0.00,,,0.00,Wunderground v.1.15,2013-05-04 05:52:00,
2013-05-04 01:55:00,62.2,44.3,29.93,NE,52,1.0,4.0,52,0.00,,,0.00,Wunderground v.1.15,2013-05-04 05:55:00,
2013-05-04 01:56:00,62.2,44.3,29.93,NE,50,0.0,4.0,52,0.00,,,0.00,Wunderground v.1.15,2013-05-04 05:56:00,
2013-05-04 01:57:00,62.2,44.9,29.93,ENE,58,0.0,4.0,53,0.00,,,0.00,Wunderground v.1.15,2013-05-04 05:57:00,
2013-05-04 01:59:00,62.1,44.8,29.93,ENE,64,0.0,4.0,53,0.00,,,0.00,Wunderground v.1.15,2013-05-04 05:59:00,
2013-05-04 02:01:00,62.0,44.7,29.93,ENE,71,0.0,4.0,53,0.00,,,0.00,Wunderground v.1.15,2013-05-04 06:01:00,
2013-05-04 02:02:00,61.9,45.1,29.93,ENE,71,1.0,4.0,54,0.00,,,0.00,Wunderground v.1.15,2013-05-04 06:02:00,
2013-05-04 02:04:00,61.8,44.5,29.93,ENE,67,3.0,6.0,53,0.00,,,0.00,Wunderground v.1.15,2013-05-04 06:04:00,
2013-05-04 02:06:00,61.8,44.5,29.93,ENE,67,5.0,6.0,53,0.00,,,0.00,Wunderground v.1.15,2013-05-04 06:06:00,
2013-05-04 02:07:00,61.8,45.0,29.93,ENE,67,1.0,6.0,54,0.00,,,0.00,Wunderground v.1.15,2013-05-04 06:07:00,
2013-05-04 02:09:00,61.7,44.9,29.93,ENE,61,3.0,6.0,54,0.00,,,0.00,Wunderground v.1.15,2013-05-04 06:09:00,
2013-05-04 02:11:00,61.7,44.9,29.93,ENE,62,5.0,6.0,54,0.00,,,0.00,Wunderground v.1.15,2013-05-04 06:11:00,
2013-05-04 02:12:00,61.7,44.9,29.93,ENE,60,0.0,6.0,54,0.00,,,0.00,Wunderground v.1.15,2013-05-04 06:12:00,
2013-05-04 02:13:00,61.7,44.9,29.93,ENE,65,1.0,6.0,54,0.00,,,0.00,Wunderground v.1.15,2013-05-04 06:13:00,
2013-05-04 02:14:00,61.6,44.8,29.93,ENE,66,0.0,6.0,54,0.00,,,0.00,Wunderground v.1.15,2013-05-04 06:14:00,
2013-05-04 02:16:00,61.6,44.8,29.93,ENE,61,3.0,6.0,54,0.00,,,0.00,Wunderground v.1.15,2013-05-04 06:16:00,
2013-05-04 02:17:00,61.6,44.8,29.93,ENE,61,0.0,6.0,54,0.00,,,0.00,Wunderground v.1.15,2013-05-04 06:17:00,
2013-05-04 02:18:00,61.5,44.7,29.93,ENE,61,3.0,6.0,54,0.00,,,0.00,Wunderground v.1.15,2013-05-04 06:18:00,
2013-05-04 02:20:00,61.5,45.2,29.93,ENE,62,4.0,4.0,55,0.00,,,0.00,Wunderground v.1.15,2013-05-04 06:20:00,
2013-05-04 02:21:00,61.5,44.7,29.93,ENE,66,1.0,4.0,54,0.00,,,0.00,Wunderground v.1.15,2013-05-04 06:21:00,
2013-05-04 02:22:00,61.5,45.2,29.93,ENE,65,1.0,4.0,55,0.00,,,0.00,Wunderground v.1.15,2013-05-04 06:22:00,
2013-05-04 02:23:00,61.4,45.1,29.93,ENE,63,0.0,4.0,55,0.00,,,0.00,Wunderground v.1.15,2013-05-04 06:23:00,
2013-05-04 02:25:00,61.4,45.1,29.93,ENE,71,0.0,4.0,55,0.00,,,0.00,Wunderground v.1.15,2013-05-04 06:25:00,
2013-05-04 02:26:00,61.4,45.1,29.93,ENE,71,0.0,4.0,55,0.00,,,0.00,Wunderground v.1.15,2013-05-04 06:26:00,
2013-05-04 02:27:00,61.4,45.6,29.93,ENE,71,0.0,4.0,56,0.00,,,0.00,Wunderground v.1.15,2013-05-04 06:27:00,
2013-05-04 02:28:00,61.4,45.6,29.93,ENE,71,0.0,4.0,56,0.00,,,0.00,Wunderground v.1.15,2013-05-04 06:28:00,
2013-05-04 02:30:00,61.3,45.5,29.93,ENE,71,0.0,1.0,56,0.00,,,0.00,Wunderground v.1.15,2013-05-04 06:30:00,
2013-05-04 02:31:00,61.2,44.9,29.93,ENE,71,0.0,1.0,55,0.00,,,0.00,Wunderground v.1.15,2013-05-04 06:31:00,
2013-05-04 02:32:00,61.2,45.4,29.93,NE,51,5.0,5.0,56,0.00,,,0.00,Wunderground v.1.15,2013-05-04 06:32:00,
2013-05-04 02:33:00,61.2,45.4,29.93,ENE,60,3.0,5.0,56,0.00,,,0.00,Wunderground v.1.15,2013-05-04 06:33:00,
2013-05-04 02:35:00,61.2,45.4,29.93,NE,56,4.0,5.0,56,0.00,,,0.00,Wunderground v.1.15,2013-05-04 06:35:00,
2013-05-04 02:36:00,61.2,44.9,29.93,ENE,61,2.0,5.0,55,0.00,,,0.00,Wunderground v.1.15,2013-05-04 06:36:00,
2013-05-04 02:37:00,61.2,44.9,29.93,ENE,60,0.0,5.0,55,0.00,,,0.00,Wunderground v.1.15,2013-05-04 06:37:00,
2013-05-04 02:38:00,61.2,45.4,29.93,ENE,60,0.0,5.0,56,0.00,,,0.00,Wunderground v.1.15,2013-05-04 06:38:00,
2013-05-04 02:41:00,61.2,45.4,29.93,ENE,74,1.0,4.0,56,0.00,,,0.00,Wunderground v.1.15,2013-05-04 06:41:00,
2013-05-04 02:42:00,61.2,45.4,29.93,ENE,69,0.0,4.0,56,0.00,,,0.00,Wunderground v.1.15,2013-05-04 06:42:00,
2013-05-04 02:43:00,61.1,45.3,29.92,East,90,3.0,6.0,56,0.00,,,0.00,Wunderground v.1.15,2013-05-04 06:43:00,
2013-05-04 02:46:00,61.1,45.3,29.92,ENE,65,2.0,7.0,56,0.00,,,0.00,Wunderground v.1.15,2013-05-04 06:46:00,
2013-05-04 02:47:00,61.1,45.3,29.92,ENE,57,1.0,7.0,56,0.00,,,0.00,Wunderground v.1.15,2013-05-04 06:47:00,
2013-05-04 02:48:00,61.1,45.3,29.92,ENE,67,0.0,7.0,56,0.00,,,0.00,Wunderground v.1.15,2013-05-04 06:48:00,
2013-05-04 02:51:00,61.1,45.3,29.92,ENE,62,0.0,6.0,56,0.00,,,0.00,Wunderground v.1.15,2013-05-04 06:51:00,
2013-05-04 02:52:00,61.1,45.7,29.92,ENE,71,7.0,10.0,57,0.00,,,0.00,Wunderground v.1.15,2013-05-04 06:52:00,
2013-05-04 02:53:00,61.1,45.7,29.92,NE,54,2.0,10.0,57,0.00,,,0.00,Wunderground v.1.15,2013-05-04 06:53:00,
2013-05-04 02:56:00,61.1,45.7,29.93,ENE,74,0.0,10.0,57,0.00,,,0.00,Wunderground v.1.15,2013-05-04 06:56:00,
2013-05-04 02:58:00,61.0,45.7,29.93,ENE,66,5.0,10.0,57,0.00,,,0.00,Wunderground v.1.15,2013-05-04 06:58:00,
2013-05-04 02:59:00,61.0,45.7,29.92,ENE,63,4.0,10.0,57,0.00,,,0.00,Wunderground v.1.15,2013-05-04 06:59:00,
2013-05-04 03:01:00,60.9,45.6,29.93,ENE,76,1.0,7.0,57,0.00,,,0.00,Wunderground v.1.15,2013-05-04 07:01:00,
2013-05-04 03:03:00,60.9,46.0,29.93,NE,55,1.0,7.0,58,0.00,,,0.00,Wunderground v.1.15,2013-05-04 07:03:00,
2013-05-04 03:04:00,60.9,45.6,29.93,ENE,57,1.0,7.0,57,0.00,,,0.00,Wunderground v.1.15,2013-05-04 07:04:00,
2013-05-04 03:06:00,60.9,46.0,29.92,ENE,61,3.0,7.0,58,0.00,,,0.00,Wunderground v.1.15,2013-05-04 07:06:00,
2013-05-04 03:07:00,60.9,46.0,29.93,NE,46,3.0,7.0,58,0.00,,,0.00,Wunderground v.1.15,2013-05-04 07:07:00,
2013-05-04 03:08:00,60.9,46.0,29.93,ENE,73,7.0,7.0,58,0.00,,,0.00,Wunderground v.1.15,2013-05-04 07:08:00,
2013-05-04 03:09:00,60.9,46.0,29.92,ENE,63,3.0,7.0,58,0.00,,,0.00,Wunderground v.1.15,2013-05-04 07:09:00,
2013-05-04 03:11:00,60.9,46.0,29.93,ENE,58,3.0,5.0,58,0.00,,,0.00,Wunderground v.1.15,2013-05-04 07:11:00,
2013-05-04 03:12:00,60.9,46.0,29.93,ENE,75,4.0,5.0,58,0.00,,,0.00,Wunderground v.1.15,2013-05-04 07:12:00,
2013-05-04 03:13:00,60.9,46.0,29.93,ENE,68,1.0,6.0,58,0.00,,,0.00,Wunderground v.1.15,2013-05-04 07:13:00,
2013-05-04 03:14:00,60.9,46.0,29.92,NE,53,2.0,6.0,58,0.00,,,0.00,Wunderground v.1.15,2013-05-04 07:14:00,
2013-05-04 03:16:00,60.9,46.0,29.93,ENE,64,1.0,6.0,58,0.00,,,0.00,Wunderground v.1.15,2013-05-04 07:16:00,
2013-05-04 03:17:00,60.9,46.5,29.93,ENE,69,1.0,8.0,59,0.00,,,0.00,Wunderground v.1.15,2013-05-04 07:17:00,
2013-05-04 03:18:00,60.9,46.0,29.93,ENE,58,3.0,8.0,58,0.00,,,0.00,Wunderground v.1.15,2013-05-04 07:18:00,
2013-05-04 03:20:00,60.9,46.5,29.92,ENE,61,5.0,5.0,59,0.00,,,0.00,Wunderground v.1.15,2013-05-04 07:20:00,
2013-05-04 03:22:00,60.9,46.5,29.92,ENE,63,1.0,6.0,59,0.00,,,0.00,Wunderground v.1.15,2013-05-04 07:22:00,
2013-05-04 03:23:00,60.8,46.4,29.92,NE,56,0.0,6.0,59,0.00,,,0.00,Wunderground v.1.15,2013-05-04 07:23:00,
2013-05-04 03:25:00,60.8,46.4,29.92,ENE,59,0.0,6.0,59,0.00,,,0.00,Wunderground v.1.15,2013-05-04 07:25:00,
2013-05-04 03:27:00,60.8,46.4,29.92,ENE,74,0.0,6.0,59,0.00,,,0.00,Wunderground v.1.15,2013-05-04 07:27:00,
2013-05-04 03:28:00,60.8,46.4,29.92,ENE,71,2.0,6.0,59,0.00,,,0.00,Wunderground v.1.15,2013-05-04 07:28:00,
2013-05-04 03:29:00,60.8,46.4,29.92,ENE,69,2.0,6.0,59,0.00,,,0.00,Wunderground v.1.15,2013-05-04 07:29:00,
2013-05-04 03:30:00,60.7,46.3,29.92,ENE,68,0.0,7.0,59,0.00,,,0.00,Wunderground v.1.15,2013-05-04 07:30:00,
2013-05-04 03:32:00,60.7,46.7,29.92,ENE,70,1.0,7.0,60,0.00,,,0.00,Wunderground v.1.15,2013-05-04 07:32:00,
2013-05-04 03:33:00,60.6,46.6,29.92,ENE,69,0.0,7.0,60,0.00,,,0.00,Wunderground v.1.15,2013-05-04 07:33:00,
2013-05-04 03:34:00,60.6,46.6,29.92,ENE,69,0.0,7.0,60,0.00,,,0.00,Wunderground v.1.15,2013-05-04 07:34:00,
2013-05-04 03:35:00,60.5,46.5,29.92,ENE,71,0.0,7.0,60,0.00,,,0.00,Wunderground v.1.15,2013-05-04 07:35:00,
2013-05-04 03:36:00,60.5,46.5,29.92,ENE,71,0.0,7.0,60,0.00,,,0.00,Wunderground v.1.15,2013-05-04 07:36:00,
2013-05-04 03:37:00,60.4,46.4,29.92,ENE,76,0.0,7.0,60,0.00,,,0.00,Wunderground v.1.15,2013-05-04 07:37:00,
2013-05-04 03:38:00,60.4,46.4,29.92,ENE,76,0.0,7.0,60,0.00,,,0.00,Wunderground v.1.15,2013-05-04 07:38:00,
2013-05-04 03:39:00,60.4,46.9,29.92,NE,56,2.0,7.0,61,0.00,,,0.00,Wunderground v.1.15,2013-05-04 07:39:00,
2013-05-04 03:41:00,60.4,46.4,29.92,ENE,61,0.0,1.0,60,0.00,,,0.00,Wunderground v.1.15,2013-05-04 07:41:00,
2013-05-04 03:43:00,60.3,46.8,29.92,ENE,61,0.0,1.0,61,0.00,,,0.00,Wunderground v.1.15,2013-05-04 07:43:00,
2013-05-04 03:44:00,60.2,46.7,29.92,ENE,57,0.0,4.0,61,0.00,,,0.00,Wunderground v.1.15,2013-05-04 07:44:00,
2013-05-04 03:46:00,60.2,46.7,29.92,ENE,57,0.0,4.0,61,0.00,,,0.00,Wunderground v.1.15,2013-05-04 07:46:00,
2013-05-04 03:48:00,60.1,46.6,29.92,ENE,61,3.0,4.0,61,0.00,,,0.00,Wunderground v.1.15,2013-05-04 07:48:00,
2013-05-04 03:49:00,60.1,46.6,29.92,ENE,61,0.0,4.0,61,0.00,,,0.00,Wunderground v.1.15,2013-05-04 07:49:00,
2013-05-04 03:51:00,60.0,46.5,29.92,ENE,67,1.0,7.0,61,0.00,,,0.00,Wunderground v.1.15,2013-05-04 07:51:00,
2013-05-04 03:52:00,60.0,46.5,29.92,ENE,69,0.0,7.0,61,0.00,,,0.00,Wunderground v.1.15,2013-05-04 07:52:00,
2013-05-04 03:53:00,59.9,46.4,29.92,ENE,71,0.0,7.0,61,0.00,,,0.00,Wunderground v.1.15,2013-05-04 07:53:00,
2013-05-04 03:54:00,59.9,46.4,29.92,ENE,71,0.0,7.0,61,0.00,,,0.00,Wunderground v.1.15,2013-05-04 07:54:00,
2013-05-04 03:57:00,59.9,46.8,29.92,NE,55,0.0,7.0,62,0.00,,,0.00,Wunderground v.1.15,2013-05-04 07:57:00,
2013-05-04 03:59:00,59.8,46.7,29.92,NE,56,2.0,7.0,62,0.00,,,0.00,Wunderground v.1.15,2013-05-04 07:59:00,
2013-05-04 04:00:00,59.7,46.7,29.92,ENE,68,0.0,1.0,62,0.00,,,0.00,Wunderground v.1.15,2013-05-04 08:00:00,
2013-05-04 04:02:00,59.7,46.7,29.92,ENE,73,3.0,4.0,62,0.00,,,0.00,Wunderground v.1.15,2013-05-04 08:02:00,
2013-05-04 04:04:00,59.6,46.6,29.92,ENE,70,3.0,5.0,62,0.00,,,0.00,Wunderground v.1.15,2013-05-04 08:04:00,
2013-05-04 04:05:00,59.6,46.6,29.92,ENE,70,7.0,7.0,62,0.00,,,0.00,Wunderground v.1.15,2013-05-04 08:05:00,
2013-05-04 04:07:00,59.5,46.5,29.92,ENE,71,2.0,7.0,62,0.00,,,0.00,Wunderground v.1.15,2013-05-04 08:07:00,
2013-05-04 04:08:00,59.5,46.5,29.92,NE,54,4.0,7.0,62,0.00,,,0.00,Wunderground v.1.15,2013-05-04 08:08:00,
2013-05-04 04:09:00,59.5,46.5,29.92,NE,46,1.0,7.0,62,0.00,,,0.00,Wunderground v.1.15,2013-05-04 08:09:00,
2013-05-04 04:10:00,59.5,46.5,29.92,NE,37,3.0,3.0,62,0.00,,,0.00,Wunderground v.1.15,2013-05-04 08:10:00,
2013-05-04 04:12:00,59.5,46.9,29.92,NE,37,0.0,3.0,63,0.00,,,0.00,Wunderground v.1.15,2013-05-04 08:12:00,
2013-05-04 04:13:00,59.5,46.9,29.92,NE,37,0.0,3.0,63,0.00,,,0.00,Wunderground v.1.15,2013-05-04 08:13:00,
2013-05-04 04:14:00,59.4,46.8,29.92,East,99,0.0,4.0,63,0.00,,,0.00,Wunderground v.1.15,2013-05-04 08:14:00,
2013-05-04 04:15:00,59.4,46.8,29.92,NE,54,2.0,8.0,63,0.00,,,0.00,Wunderground v.1.15,2013-05-04 08:15:00,
2013-05-04 04:17:00,59.4,46.8,29.92,ENE,75,0.0,8.0,63,0.00,,,0.00,Wunderground v.1.15,2013-05-04 08:17:00,
2013-05-04 04:18:00,59.4,46.8,29.92,ENE,75,0.0,8.0,63,0.00,,,0.00,Wunderground v.1.15,2013-05-04 08:18:00,
2013-05-04 04:19:00,59.4,46.8,29.92,ENE,75,0.0,8.0,63,0.00,,,0.00,Wunderground v.1.15,2013-05-04 08:19:00,
2013-05-04 04:20:00,59.4,47.2,29.92,ENE,75,0.0,1.0,64,0.00,,,0.00,Wunderground v.1.15,2013-05-04 08:20:00,
2013-05-04 04:21:00,59.3,47.1,29.92,ENE,75,0.0,1.0,64,0.00,,,0.00,Wunderground v.1.15,2013-05-04 08:21:00,
2013-05-04 04:22:00,59.3,47.1,29.92,NE,51,3.0,4.0,64,0.00,,,0.00,Wunderground v.1.15,2013-05-04 08:22:00,
2013-05-04 04:23:00,59.3,47.1,29.92,NE,52,1.0,4.0,64,0.00,,,0.00,Wunderground v.1.15,2013-05-04 08:23:00,
2013-05-04 04:24:00,59.2,47.0,29.92,NE,53,1.0,4.0,64,0.00,,,0.00,Wunderground v.1.15,2013-05-04 08:24:00,
2013-05-04 04:25:00,59.2,47.0,29.92,NE,53,0.0,4.0,64,0.00,,,0.00,Wunderground v.1.15,2013-05-04 08:25:00,
2013-05-04 04:26:00,59.1,46.9,29.92,NE,53,3.0,4.0,64,0.00,,,0.00,Wunderground v.1.15,2013-05-04 08:26:00,
2013-05-04 04:27:00,59.1,46.9,29.92,ENE,63,0.0,5.0,64,0.00,,,0.00,Wunderground v.1.15,2013-05-04 08:27:00,
2013-05-04 04:28:00,59.1,46.9,29.92,ENE,63,0.0,5.0,64,0.00,,,0.00,Wunderground v.1.15,2013-05-04 08:28:00,
2013-05-04 04:29:00,59.0,46.8,29.92,ENE,63,0.0,5.0,64,0.00,,,0.00,Wunderground v.1.15,2013-05-04 08:29:00,
2013-05-04 04:30:00,59.0,47.2,29.92,ENE,58,0.0,2.0,65,0.00,,,0.00,Wunderground v.1.15,2013-05-04 08:30:00,
2013-05-04 04:31:00,59.0,46.8,29.92,ENE,61,1.0,2.0,64,0.00,,,0.00,Wunderground v.1.15,2013-05-04 08:31:00,
2013-05-04 04:33:00,59.0,47.2,29.92,ENE,58,0.0,2.0,65,0.00,,,0.00,Wunderground v.1.15,2013-05-04 08:33:00,
2013-05-04 04:35:00,58.9,47.2,29.92,ENE,58,0.0,2.0,65,0.00,,,0.00,Wunderground v.1.15,2013-05-04 08:35:00,
2013-05-04 04:36:00,58.9,47.2,29.92,East,98,1.0,6.0,65,0.00,,,0.00,Wunderground v.1.15,2013-05-04 08:36:00,
2013-05-04 04:38:00,58.9,47.2,29.92,ENE,70,0.0,6.0,65,0.00,,,0.00,Wunderground v.1.15,2013-05-04 08:38:00,
2013-05-04 04:40:00,58.9,47.2,29.92,ENE,59,0.0,1.0,65,0.00,,,0.00,Wunderground v.1.15,2013-05-04 08:40:00,
2013-05-04 04:41:00,58.9,47.2,29.92,ENE,74,2.0,3.0,65,0.00,,,0.00,Wunderground v.1.15,2013-05-04 08:41:00,
2013-05-04 04:42:00,58.8,47.1,29.92,ENE,71,1.0,3.0,65,0.00,,,0.00,Wunderground v.1.15,2013-05-04 08:42:00,
2013-05-04 04:43:00,58.8,47.1,29.91,ENE,71,0.0,3.0,65,0.00,,,0.00,Wunderground v.1.15,2013-05-04 08:43:00,
2013-05-04 04:44:00,58.8,47.1,29.91,NE,43,4.0,6.0,65,0.00,,,0.00,Wunderground v.1.15,2013-05-04 08:44:00,
2013-05-04 04:46:00,58.8,47.1,29.92,NE,54,0.0,6.0,65,0.00,,,0.00,Wunderground v.1.15,2013-05-04 08:46:00,
2013-05-04 04:47:00,58.8,47.5,29.92,NE,53,2.0,6.0,66,0.00,,,0.00,Wunderground v.1.15,2013-05-04 08:47:00,
2013-05-04 04:48:00,58.8,47.5,29.91,ENE,63,5.0,6.0,66,0.00,,,0.00,Wunderground v.1.15,2013-05-04 08:48:00,
2013-05-04 04:49:00,58.7,47.4,29.92,ENE,66,0.0,6.0,66,0.00,,,0.00,Wunderground v.1.15,2013-05-04 08:49:00,
2013-05-04 04:51:00,58.7,47.4,29.91,ENE,66,0.0,1.0,66,0.00,,,0.00,Wunderground v.1.15,2013-05-04 08:51:00,
2013-05-04 04:52:00,58.7,47.4,29.91,ENE,65,1.0,1.0,66,0.00,,,0.00,Wunderground v.1.15,2013-05-04 08:52:00,
2013-05-04 04:53:00,58.7,47.4,29.91,ENE,68,3.0,4.0,66,0.00,,,0.00,Wunderground v.1.15,2013-05-04 08:53:00,
2013-05-04 04:54:00,58.7,47.4,29.92,ENE,58,0.0,6.0,66,0.00,,,0.00,Wunderground v.1.15,2013-05-04 08:54:00,
2013-05-04 04:56:00,58.6,47.3,29.91,ENE,75,0.0,6.0,66,0.00,,,0.00,Wunderground v.1.15,2013-05-04 08:56:00,
2013-05-04 04:57:00,58.7,47.4,29.91,ENE,75,0.0,6.0,66,0.00,,,0.00,Wunderground v.1.15,2013-05-04 08:57:00,
2013-05-04 04:58:00,58.7,47.4,29.91,ENE,75,0.0,6.0,66,0.00,,,0.00,Wunderground v.1.15,2013-05-04 08:58:00,
2013-05-04 05:00:00,58.6,47.3,29.91,ENE,75,0.0,1.0,66,0.00,,,0.00,Wunderground v.1.15,2013-05-04 09:00:00,
2013-05-04 05:01:00,58.5,47.2,29.91,NE,41,3.0,4.0,66,0.00,,,0.00,Wunderground v.1.15,2013-05-04 09:01:00,
2013-05-04 05:02:00,58.5,47.2,29.91,NE,42,4.0,4.0,66,0.00,,,0.00,Wunderground v.1.15,2013-05-04 09:02:00,
2013-05-04 05:03:00,58.5,47.2,29.91,ENE,57,0.0,4.0,66,0.00,,,0.00,Wunderground v.1.15,2013-05-04 09:03:00,
2013-05-04 05:05:00,58.5,47.6,29.91,ENE,57,3.0,4.0,67,0.00,,,0.00,Wunderground v.1.15,2013-05-04 09:05:00,
2013-05-04 05:06:00,58.4,47.5,29.91,ENE,71,2.0,8.0,67,0.00,,,0.00,Wunderground v.1.15,2013-05-04 09:06:00,
2013-05-04 05:07:00,58.4,47.5,29.91,ENE,71,0.0,8.0,67,0.00,,,0.00,Wunderground v.1.15,2013-05-04 09:07:00,
2013-05-04 05:08:00,58.4,47.5,29.91,NE,38,4.0,8.0,67,0.00,,,0.00,Wunderground v.1.15,2013-05-04 09:08:00,
2013-05-04 05:09:00,58.4,47.5,29.91,NE,55,5.0,8.0,67,0.00,,,0.00,Wunderground v.1.15,2013-05-04 09:09:00,
2013-05-04 05:10:00,58.4,47.5,29.91,ENE,59,3.0,4.0,67,0.00,,,0.00,Wunderground v.1.15,2013-05-04 09:10:00,
2013-05-04 05:12:00,58.5,47.6,29.91,NE,56,0.0,5.0,67,0.00,,,0.00,Wunderground v.1.15,2013-05-04 09:12:00,
2013-05-04 05:14:00,58.5,47.6,29.91,ENE,71,0.0,5.0,67,0.00,,,0.00,Wunderground v.1.15,2013-05-04 09:14:00,
2013-05-04 05:15:00,58.4,47.5,29.91,ENE,68,2.0,5.0,67,0.00,,,0.00,Wunderground v.1.15,2013-05-04 09:15:00,
2013-05-04 05:17:00,58.4,47.5,29.91,NE,54,3.0,6.0,67,0.00,,,0.00,Wunderground v.1.15,2013-05-04 09:17:00,
2013-05-04 05:19:00,58.4,47.5,29.91,ENE,73,0.0,6.0,67,0.00,,,0.00,Wunderground v.1.15,2013-05-04 09:19:00,
2013-05-04 05:20:00,58.4,47.5,29.91,ENE,62,3.0,6.0,67,0.00,,,0.00,Wunderground v.1.15,2013-05-04 09:20:00,
2013-05-04 05:23:00,58.3,47.4,29.91,ENE,58,0.0,6.0,67,0.00,,,0.00,Wunderground v.1.15,2013-05-04 09:23:00,
2013-05-04 05:25:00,58.3,47.4,29.91,East,80,2.0,8.0,67,0.00,,,0.00,Wunderground v.1.15,2013-05-04 09:25:00,
2013-05-04 05:26:00,58.3,47.4,29.91,ENE,73,2.0,8.0,67,0.00,,,0.00,Wunderground v.1.15,2013-05-04 09:26:00,
2013-05-04 05:28:00,58.3,47.4,29.91,ENE,57,1.0,8.0,67,0.00,,,0.00,Wunderground v.1.15,2013-05-04 09:28:00,
2013-05-04 05:29:00,58.3,47.8,29.91,NE,50,4.0,8.0,68,0.00,,,0.00,Wunderground v.1.15,2013-05-04 09:29:00,
2013-05-04 05:30:00,58.3,47.4,29.91,NNE,28,5.0,5.0,67,0.00,,,0.00,Wunderground v.1.15,2013-05-04 09:30:00,
2013-05-04 05:31:00,58.3,47.8,29.91,NE,38,3.0,5.0,68,0.00,,,0.00,Wunderground v.1.15,2013-05-04 09:31:00,
2013-05-04 05:33:00,58.3,47.8,29.91,East,80,4.0,5.0,68,0.00,,,0.00,Wunderground v.1.15,2013-05-04 09:33:00,
2013-05-04 05:34:00,58.3,47.8,29.91,East,80,1.0,7.0,68,0.00,,,0.00,Wunderground v.1.15,2013-05-04 09:34:00,
2013-05-04 05:35:00,58.3,47.8,29.91,ENE,65,4.0,7.0,68,0.00,,,0.00,Wunderground v.1.15,2013-05-04 09:35:00,
2013-05-04 05:36:00,58.3,47.8,29.91,ENE,65,0.0,7.0,68,0.00,,,0.00,Wunderground v.1.15,2013-05-04 09:36:00,
2013-05-04 05:38:00,58.3,47.8,29.91,ENE,69,5.0,8.0,68,0.00,,,0.00,Wunderground v.1.15,2013-05-04 09:38:00,
2013-05-04 05:40:00,58.2,47.7,29.92,ENE,69,2.0,2.0,68,0.00,,,0.00,Wunderground v.1.15,2013-05-04 09:40:00,
2013-05-04 05:41:00,58.3,47.8,29.91,ENE,58,2.0,5.0,68,0.00,,,0.00,Wunderground v.1.15,2013-05-04 09:41:00,
2013-05-04 05:42:00,58.3,47.8,29.91,ENE,75,5.0,5.0,68,0.00,,,0.00,Wunderground v.1.15,2013-05-04 09:42:00,
2013-05-04 05:43:00,58.2,47.7,29.91,ENE,58,3.0,8.0,68,0.00,,,0.00,Wunderground v.1.15,2013-05-04 09:43:00,
2013-05-04 05:45:00,58.2,47.7,29.91,ENE,63,4.0,8.0,68,0.00,,,0.00,Wunderground v.1.15,2013-05-04 09:45:00,
2013-05-04 05:46:00,58.3,47.8,29.91,ENE,63,4.0,8.0,68,0.00,,,0.00,Wunderground v.1.15,2013-05-04 09:46:00,
2013-05-04 05:47:00,58.3,47.8,29.91,ENE,64,2.0,8.0,68,0.00,,,0.00,Wunderground v.1.15,2013-05-04 09:47:00,
2013-05-04 05:48:00,58.3,47.8,29.91,East,80,0.0,8.0,68,0.00,,,0.00,Wunderground v.1.15,2013-05-04 09:48:00,
2013-05-04 05:50:00,58.3,47.8,29.91,NE,54,3.0,6.0,68,0.00,,,0.00,Wunderground v.1.15,2013-05-04 09:50:00,
2013-05-04 05:51:00,58.4,47.9,29.91,NE,56,3.0,6.0,68,0.00,,,0.00,Wunderground v.1.15,2013-05-04 09:51:00,
2013-05-04 05:53:00,58.4,47.9,29.91,NE,48,4.0,7.0,68,0.00,,,0.00,Wunderground v.1.15,2013-05-04 09:53:00,
2013-05-04 05:55:00,58.4,47.9,29.91,NE,48,4.0,7.0,68,0.00,,,0.00,Wunderground v.1.15,2013-05-04 09:55:00,
2013-05-04 05:56:00,58.4,47.9,29.91,ENE,73,5.0,7.0,68,0.00,,,0.00,Wunderground v.1.15,2013-05-04 09:56:00,
2013-05-04 05:58:00,58.4,47.9,29.91,ENE,64,2.0,7.0,68,0.00,,,0.00,Wunderground v.1.15,2013-05-04 09:58:00,
2013-05-04 06:00:00,58.4,47.9,29.91,ENE,70,2.0,4.0,68,0.00,,,0.00,Wunderground v.1.15,2013-05-04 10:00:00,
2013-05-04 06:01:00,58.4,47.9,29.91,ENE,69,5.0,6.0,68,0.00,,,0.00,Wunderground v.1.15,2013-05-04 10:01:00,
2013-05-04 06:03:00,58.4,47.9,29.91,NE,56,4.0,6.0,68,0.00,,,0.00,Wunderground v.1.15,2013-05-04 10:03:00,
2013-05-04 06:05:00,58.4,47.9,29.91,ENE,75,1.0,6.0,68,0.00,,,0.00,Wunderground v.1.15,2013-05-04 10:05:00,
2013-05-04 06:06:00,58.4,47.9,29.91,NE,56,0.0,6.0,68,0.00,,,0.00,Wunderground v.1.15,2013-05-04 10:06:00,
2013-05-04 06:07:00,58.4,47.9,29.91,NE,56,2.0,6.0,68,0.00,,,0.00,Wunderground v.1.15,2013-05-04 10:07:00,
2013-05-04 06:09:00,58.4,47.9,29.91,NE,51,2.0,7.0,68,0.00,,,0.00,Wunderground v.1.15,2013-05-04 10:09:00,
2013-05-04 06:10:00,58.3,47.8,29.91,ESE,107,4.0,7.0,68,0.00,,,0.00,Wunderground v.1.15,2013-05-04 10:10:00,
2013-05-04 06:11:00,58.4,47.9,29.91,ENE,72,3.0,7.0,68,0.00,,,0.00,Wunderground v.1.15,2013-05-04 10:11:00,
2013-05-04 06:12:00,58.3,47.8,29.91,ENE,65,2.0,7.0,68,0.00,,,0.00,Wunderground v.1.15,2013-05-04 10:12:00,
2013-05-04 06:14:00,58.3,47.8,29.91,NE,35,4.0,7.0,68,0.00,,,0.00,Wunderground v.1.15,2013-05-04 10:14:00,
2013-05-04 06:15:00,58.4,47.9,29.91,ENE,64,4.0,7.0,68,0.00,,,0.00,Wunderground v.1.15,2013-05-04 10:15:00,
2013-05-04 06:16:00,58.4,47.9,29.91,NE,54,5.0,7.0,68,0.00,,,0.00,Wunderground v.1.15,2013-05-04 10:16:00,
2013-05-04 06:17:00,58.4,47.9,29.91,ENE,58,2.0,7.0,68,0.00,,,0.00,Wunderground v.1.15,2013-05-04 10:17:00,
2013-05-04 06:19:00,58.4,47.9,29.91,ENE,69,5.0,7.0,68,0.00,,,0.00,Wunderground v.1.15,2013-05-04 10:19:00,
2013-05-04 06:21:00,58.4,47.9,29.91,East,80,3.0,6.0,68,0.00,,,0.00,Wunderground v.1.15,2013-05-04 10:21:00,
2013-05-04 06:22:00,58.4,47.9,29.91,ENE,59,3.0,6.0,68,0.00,,,0.00,Wunderground v.1.15,2013-05-04 10:22:00,
2013-05-04 06:24:00,58.4,47.9,29.90,NE,50,3.0,9.0,68,0.00,,,0.00,Wunderground v.1.15,2013-05-04 10:24:00,
2013-05-04 06:26:00,58.4,47.5,29.91,ENE,65,2.0,9.0,67,0.00,,,0.00,Wunderground v.1.15,2013-05-04 10:26:00,
2013-05-04 06:27:00,58.4,47.5,29.91,ENE,69,4.0,9.0,67,0.00,,,0.00,Wunderground v.1.15,2013-05-04 10:27:00,
2013-05-04 06:29:00,58.4,47.5,29.91,ENE,64,4.0,9.0,67,0.00,,,0.00,Wunderground v.1.15,2013-05-04 10:29:00,
2013-05-04 06:32:00,58.4,47.5,29.91,ENE,61,3.0,5.0,67,0.00,,,0.00,Wunderground v.1.15,2013-05-04 10:32:00,
2013-05-04 06:33:00,58.4,47.9,29.91,NE,34,5.0,6.0,68,0.00,,,0.00,Wunderground v.1.15,2013-05-04 10:33:00,
2013-05-04 06:35:00,58.4,47.9,29.91,NE,48,3.0,6.0,68,0.00,,,0.00,Wunderground v.1.15,2013-05-04 10:35:00,
2013-05-04 06:37:00,58.4,47.9,29.91,ENE,73,5.0,8.0,68,0.00,,,0.00,Wunderground v.1.15,2013-05-04 10:37:00,
2013-05-04 06:38:00,58.4,47.5,29.91,ENE,72,4.0,8.0,67,0.00,,,0.00,Wunderground v.1.15,2013-05-04 10:38:00,
2013-05-04 06:40:00,58.3,47.8,29.91,ENE,63,3.0,5.0,68,0.00,,,0.00,Wunderground v.1.15,2013-05-04 10:40:00,
2013-05-04 06:41:00,58.3,47.8,29.91,ENE,65,5.0,5.0,68,0.00,,,0.00,Wunderground v.1.15,2013-05-04 10:41:00,
2013-05-04 06:42:00,58.3,47.8,29.91,ENE,60,4.0,7.0,68,0.00,,,0.00,Wunderground v.1.15,2013-05-04 10:42:00,
2013-05-04 06:43:00,58.3,47.4,29.91,ENE,71,6.0,7.0,67,0.00,,,0.00,Wunderground v.1.15,2013-05-04 10:43:00,
2013-05-04 06:45:00,58.4,47.5,29.91,NE,54,4.0,8.0,67,0.00,,,0.00,Wunderground v.1.15,2013-05-04 10:45:00,
2013-05-04 06:46:00,58.4,47.5,29.91,East,85,3.0,8.0,67,0.00,,,0.00,Wunderground v.1.15,2013-05-04 10:46:00,
2013-05-04 06:47:00,58.4,47.5,29.91,ENE,73,2.0,8.0,67,0.00,,,0.00,Wunderground v.1.15,2013-05-04 10:47:00,
2013-05-04 06:48:00,58.4,47.5,29.91,ENE,71,2.0,8.0,67,0.00,,,0.00,Wunderground v.1.15,2013-05-04 10:48:00,
2013-05-04 06:51:00,58.4,47.5,29.91,ENE,58,4.0,5.0,67,0.00,,,0.00,Wunderground v.1.15,2013-05-04 10:51:00,
2013-05-04 06:53:00,58.4,47.5,29.91,NE,50,2.0,8.0,67,0.00,,,0.00,Wunderground v.1.15,2013-05-04 10:53:00,
2013-05-04 06:56:00,58.4,47.9,29.91,NE,43,5.0,11.0,68,0.00,,,0.00,Wunderground v.1.15,2013-05-04 10:56:00,
2013-05-04 06:57:00,58.4,47.5,29.91,ENE,75,3.0,11.0,67,0.00,,,0.00,Wunderground v.1.15,2013-05-04 10:57:00,
2013-05-04 06:58:00,58.4,47.5,29.92,ESE,102,7.0,11.0,67,0.00,,,0.00,Wunderground v.1.15,2013-05-04 10:58:00,
2013-05-04 07:01:00,58.4,47.5,29.92,ENE,62,2.0,5.0,67,0.00,,,0.00,Wunderground v.1.15,2013-05-04 11:01:00,
2013-05-04 07:02:00,58.4,47.9,29.92,ENE,61,3.0,5.0,68,0.00,,,0.00,Wunderground v.1.15,2013-05-04 11:02:00,
2013-05-04 07:03:00,58.4,47.9,29.92,NE,50,3.0,7.0,68,0.00,,,0.00,Wunderground v.1.15,2013-05-04 11:03:00,
2013-05-04 07:06:00,58.4,47.9,29.92,ENE,64,2.0,7.0,68,0.00,,,0.00,Wunderground v.1.15,2013-05-04 11:06:00,
2013-05-04 07:07:00,58.3,47.8,29.92,ENE,67,3.0,7.0,68,0.00,,,0.00,Wunderground v.1.15,2013-05-04 11:07:00,
2013-05-04 07:08:00,58.3,47.4,29.92,NNE,29,4.0,7.0,67,0.00,,,0.00,Wunderground v.1.15,2013-05-04 11:08:00,
2013-05-04 07:09:00,58.3,47.4,29.92,NE,54,6.0,9.0,67,0.00,,,0.00,Wunderground v.1.15,2013-05-04 11:09:00,
2013-05-04 07:11:00,58.3,47.4,29.92,NE,47,1.0,7.0,67,0.00,,,0.00,Wunderground v.1.15,2013-05-04 11:11:00,
2013-05-04 07:12:00,58.3,47.4,29.92,ENE,63,4.0,9.0,67,0.00,,,0.00,Wunderground v.1.15,2013-05-04 11:12:00,
2013-05-04 07:13:00,58.3,47.4,29.92,NE,44,5.0,9.0,67,0.00,,,0.00,Wunderground v.1.15,2013-05-04 11:13:00,
2013-05-04 07:14:00,58.4,47.5,29.92,NE,50,2.0,9.0,67,0.00,,,0.00,Wunderground v.1.15,2013-05-04 11:14:00,
2013-05-04 07:16:00,58.4,47.5,29.92,NE,49,4.0,9.0,67,0.00,,,0.00,Wunderground v.1.15,2013-05-04 11:16:00,
2013-05-04 07:17:00,58.4,47.5,29.92,ENE,67,0.0,9.0,67,0.00,,,0.00,Wunderground v.1.15,2013-05-04 11:17:00,
2013-05-04 07:18:00,58.3,47.4,29.92,NE,37,3.0,9.0,67,0.00,,,0.00,Wunderground v.1.15,2013-05-04 11:18:00,
2013-05-04 07:19:00,58.3,47.4,29.92,ENE,73,2.0,9.0,67,0.00,,,0.00,Wunderground v.1.15,2013-05-04 11:19:00,
2013-05-04 07:21:00,58.3,47.4,29.92,ENE,75,3.0,8.0,67,0.00,,,0.00,Wunderground v.1.15,2013-05-04 11:21:00,
2013-05-04 07:22:00,58.3,47.4,29.92,East,80,2.0,8.0,67,0.00,,,0.00,Wunderground v.1.15,2013-05-04 11:22:00,
2013-05-04 07:24:00,58.3,47.4,29.92,NE,37,5.0,8.0,67,0.00,,,0.00,Wunderground v.1.15,2013-05-04 11:24:00,
2013-05-04 07:27:00,58.3,47.4,29.92,NE,56,2.0,8.0,67,0.00,,,0.00,Wunderground v.1.15,2013-05-04 11:27:00,
2013-05-04 07:29:00,58.4,47.5,29.92,ENE,68,4.0,8.0,67,0.00,,,0.00,Wunderground v.1.15,2013-05-04 11:29:00,
2013-05-04 07:32:00,58.4,47.5,29.92,ENE,67,3.0,6.0,67,0.00,,,0.00,Wunderground v.1.15,2013-05-04 11:32:00,
2013-05-04 07:33:00,58.4,47.5,29.92,ESE,104,7.0,11.0,67,0.00,,,0.00,Wunderground v.1.15,2013-05-04 11:33:00,
2013-05-04 07:34:00,58.4,47.5,29.92,NE,48,4.0,11.0,67,0.00,,,0.00,Wunderground v.1.15,2013-05-04 11:34:00,
2013-05-04 07:37:00,58.7,47.8,29.92,ENE,75,3.0,11.0,67,0.00,,,0.00,Wunderground v.1.15,2013-05-04 11:37:00,
2013-05-04 07:38:00,58.7,47.8,29.92,ENE,68,4.0,11.0,67,0.00,,,0.00,Wunderground v.1.15,2013-05-04 11:38:00,
2013-05-04 07:39:00,58.8,47.9,29.92,ENE,63,4.0,11.0,67,0.00,,,0.00,Wunderground v.1.15,2013-05-04 11:39:00,
2013-05-04 07:40:00,58.8,47.9,29.92,ENE,70,6.0,8.0,67,0.00,,,0.00,Wunderground v.1.15,2013-05-04 11:40:00,
2013-05-04 07:42:00,58.9,48.0,29.92,NE,48,6.0,8.0,67,0.00,,,0.00,Wunderground v.1.15,2013-05-04 11:42:00,
2013-05-04 07:46:00,59.0,47.7,29.92,NE,44,4.0,8.0,66,0.00,,,0.00,Wunderground v.1.15,2013-05-04 11:46:00,
2013-05-04 07:47:00,59.0,47.7,29.92,NNE,19,4.0,8.0,66,0.00,,,0.00,Wunderground v.1.15,2013-05-04 11:47:00,
2013-05-04 07:48:00,59.0,48.1,29.92,ENE,71,3.0,8.0,67,0.00,,,0.00,Wunderground v.1.15,2013-05-04 11:48:00,
2013-05-04 07:51:00,59.0,48.1,29.92,ENE,58,3.0,5.0,67,0.00,,,0.00,Wunderground v.1.15,2013-05-04 11:51:00,
2013-05-04 07:52:00,59.0,48.1,29.92,ENE,65,3.0,8.0,67,0.00,,,0.00,Wunderground v.1.15,2013-05-04 11:52:00,
2013-05-04 07:53:00,59.0,48.1,29.92,ENE,73,2.0,8.0,67,0.00,,,0.00,Wunderground v.1.15,2013-05-04 11:53:00,
2013-05-04 07:56:00,58.9,48.0,29.92,ENE,61,3.0,8.0,67,0.00,,,0.00,Wunderground v.1.15,2013-05-04 11:56:00,
2013-05-04 07:57:00,58.9,48.0,29.92,East,90,3.0,8.0,67,0.00,,,0.00,Wunderground v.1.15,2013-05-04 11:57:00,
2013-05-04 07:58:00,58.9,48.0,29.92,ENE,58,3.0,8.0,67,0.00,,,0.00,Wunderground v.1.15,2013-05-04 11:58:00,
2013-05-04 07:59:00,58.9,48.0,29.92,ENE,58,5.0,8.0,67,0.00,,,0.00,Wunderground v.1.15,2013-05-04 11:59:00,
2013-05-04 08:01:00,58.9,48.0,29.92,NE,54,8.0,8.0,67,0.00,,,0.00,Wunderground v.1.15,2013-05-04 12:01:00,
2013-05-04 08:03:00,58.9,47.6,29.92,ENE,73,7.0,8.0,66,0.00,,,0.00,Wunderground v.1.15,2013-05-04 12:03:00,
2013-05-04 08:05:00,58.9,47.6,29.92,NE,46,3.0,8.0,66,0.00,,,0.00,Wunderground v.1.15,2013-05-04 12:05:00,
2013-05-04 08:06:00,58.9,47.6,29.92,NE,50,2.0,8.0,66,0.00,,,0.00,Wunderground v.1.15,2013-05-04 12:06:00,
2013-05-04 08:09:00,58.9,47.6,29.92,ENE,72,1.0,8.0,66,0.00,,,0.00,Wunderground v.1.15,2013-05-04 12:09:00,
2013-05-04 08:10:00,58.9,48.0,29.92,ENE,62,4.0,5.0,67,0.00,,,0.00,Wunderground v.1.15,2013-05-04 12:10:00,
2013-05-04 08:11:00,58.9,48.0,29.92,ENE,63,3.0,6.0,67,0.00,,,0.00,Wunderground v.1.15,2013-05-04 12:11:00,
2013-05-04 08:12:00,58.9,48.0,29.92,ENE,64,4.0,6.0,67,0.00,,,0.00,Wunderground v.1.15,2013-05-04 12:12:00,
2013-05-04 08:15:00,58.9,47.6,29.92,NNE,31,3.0,7.0,66,0.00,,,0.00,Wunderground v.1.15,2013-05-04 12:15:00,
2013-05-04 08:17:00,58.9,48.0,29.92,ENE,60,2.0,7.0,67,0.00,,,0.00,Wunderground v.1.15,2013-05-04 12:17:00,
2013-05-04 08:18:00,58.9,48.0,29.92,ENE,63,2.0,7.0,67,0.00,,,0.00,Wunderground v.1.15,2013-05-04 12:18:00,
2013-05-04 08:20:00,58.9,48.0,29.92,NE,48,6.0,6.0,67,0.00,,,0.00,Wunderground v.1.15,2013-05-04 12:20:00,
2013-05-04 08:22:00,58.9,48.0,29.92,NNE,33,6.0,7.0,67,0.00,,,0.00,Wunderground v.1.15,2013-05-04 12:22:00,
2013-05-04 08:23:00,58.9,48.0,29.92,ENE,67,4.0,7.0,67,0.00,,,0.00,Wunderground v.1.15,2013-05-04 12:23:00,
2013-05-04 08:25:00,58.8,47.5,29.92,East,90,5.0,8.0,66,0.00,,,0.00,Wunderground v.1.15,2013-05-04 12:25:00,
2013-05-04 08:28:00,58.8,47.1,29.92,ENE,75,6.0,9.0,65,0.00,,,0.00,Wunderground v.1.15,2013-05-04 12:28:00,
2013-05-04 08:30:00,58.9,47.2,29.92,East,80,3.0,6.0,65,0.00,,,0.00,Wunderground v.1.15,2013-05-04 12:30:00,
2013-05-04 08:33:00,58.9,47.2,29.92,ENE,67,2.0,6.0,65,0.00,,,0.00,Wunderground v.1.15,2013-05-04 12:33:00,
2013-05-04 08:36:00,58.9,47.6,29.92,ENE,67,2.0,6.0,66,0.00,,,0.00,Wunderground v.1.15,2013-05-04 12:36:00,
2013-05-04 08:38:00,58.9,47.2,29.92,East,90,2.0,6.0,65,0.00,,,0.00,Wunderground v.1.15,2013-05-04 12:38:00,
2013-05-04 08:39:00,59.0,47.2,29.92,NE,42,4.0,6.0,65,0.00,,,0.00,Wunderground v.1.15,2013-05-04 12:39:00,
2013-05-04 08:41:00,58.9,47.2,29.92,ENE,70,3.0,6.0,65,0.00,,,0.00,Wunderground v.1.15,2013-05-04 12:41:00,
2013-05-04 08:42:00,59.0,47.7,29.92,ENE,65,2.0,6.0,66,0.00,,,0.00,Wunderground v.1.15,2013-05-04 12:42:00,
2013-05-04 08:43:00,59.0,47.7,29.92,ENE,67,3.0,7.0,66,0.00,,,0.00,Wunderground v.1.15,2013-05-04 12:43:00,
2013-05-04 08:44:00,59.0,47.2,29.92,NE,47,4.0,7.0,65,0.00,,,0.00,Wunderground v.1.15,2013-05-04 12:44:00,
2013-05-04 08:46:00,59.0,47.2,29.92,NE,56,0.0,7.0,65,0.00,,,0.00,Wunderground v.1.15,2013-05-04 12:46:00,
2013-05-04 08:47:00,59.0,47.2,29.92,NNE,25,3.0,9.0,65,0.00,,,0.00,Wunderground v.1.15,2013-05-04 12:47:00,
2013-05-04 08:48:00,59.0,47.2,29.92,ENE,65,3.0,9.0,65,0.00,,,0.00,Wunderground v.1.15,2013-05-04 12:48:00,
2013-05-04 08:49:00,59.1,47.7,29.92,ENE,60,4.0,10.0,66,0.00,,,0.00,Wunderground v.1.15,2013-05-04 12:49:00,
2013-05-04 08:51:00,59.1,47.3,29.92,ENE,63,4.0,5.0,65,0.00,,,0.00,Wunderground v.1.15,2013-05-04 12:51:00,
2013-05-04 08:52:00,59.2,47.4,29.92,NE,56,3.0,5.0,65,0.00,,,0.00,Wunderground v.1.15,2013-05-04 12:52:00,
2013-05-04 08:53:00,59.3,47.5,29.92,ENE,72,3.0,6.0,65,0.00,,,0.00,Wunderground v.1.15,2013-05-04 12:53:00,
2013-05-04 08:55:00,59.3,47.5,29.92,NNE,30,6.0,8.0,65,0.00,,,0.00,Wunderground v.1.15,2013-05-04 12:55:00,
2013-05-04 08:56:00,59.4,47.2,29.92,ENE,61,4.0,9.0,64,0.00,,,0.00,Wunderground v.1.15,2013-05-04 12:56:00,
2013-05-04 08:58:00,59.5,47.3,29.92,ENE,58,5.0,9.0,64,0.00,,,0.00,Wunderground v.1.15,2013-05-04 12:58:00,
2013-05-04 08:59:00,59.5,47.7,29.92,NE,55,7.0,9.0,65,0.00,,,0.00,Wunderground v.1.15,2013-05-04 12:59:00,
2013-05-04 09:00:00,59.5,47.3,29.92,ENE,73,4.0,6.0,64,0.00,,,0.00,Wunderground v.1.15,2013-05-04 13:00:00,
2013-05-04 09:01:00,59.6,47.4,29.93,ENE,61,1.0,6.0,64,0.00,,,0.00,Wunderground v.1.15,2013-05-04 13:01:00,
2013-05-04 09:03:00,59.6,47.4,29.93,ENE,59,3.0,7.0,64,0.00,,,0.00,Wunderground v.1.15,2013-05-04 13:03:00,
2013-05-04 09:04:00,59.6,47.8,29.92,ENE,66,3.0,7.0,65,0.00,,,0.00,Wunderground v.1.15,2013-05-04 13:04:00,
2013-05-04 09:05:00,59.7,47.9,29.93,ENE,60,3.0,7.0,65,0.00,,,0.00,Wunderground v.1.15,2013-05-04 13:05:00,
2013-05-04 09:06:00,59.6,47.4,29.93,ENE,65,3.0,7.0,64,0.00,,,0.00,Wunderground v.1.15,2013-05-04 13:06:00,
2013-05-04 09:08:00,59.7,47.5,29.92,ENE,61,5.0,9.0,64,0.00,,,0.00,Wunderground v.1.15,2013-05-04 13:08:00,
2013-05-04 09:09:00,59.7,47.5,29.92,NE,56,6.0,9.0,64,0.00,,,0.00,Wunderground v.1.15,2013-05-04 13:09:00,
2013-05-04 09:10:00,59.7,47.1,29.92,ENE,60,10.0,10.0,63,0.00,,,0.00,Wunderground v.1.15,2013-05-04 13:10:00,
2013-05-04 09:12:00,59.6,46.6,29.93,ENE,59,2.0,10.0,62,0.00,,,0.00,Wunderground v.1.15,2013-05-04 13:12:00,
2013-05-04 09:14:00,59.7,47.5,29.92,ENE,67,8.0,10.0,64,0.00,,,0.00,Wunderground v.1.15,2013-05-04 13:14:00,
2013-05-04 09:15:00,59.6,46.6,29.93,ENE,58,7.0,12.0,62,0.00,,,0.00,Wunderground v.1.15,2013-05-04 13:15:00,
2013-05-04 09:17:00,59.6,46.6,29.93,East,85,3.0,12.0,62,0.00,,,0.00,Wunderground v.1.15,2013-05-04 13:17:00,
2013-05-04 09:19:00,59.6,47.0,29.93,East,85,2.0,12.0,63,0.00,,,0.00,Wunderground v.1.15,2013-05-04 13:19:00,
2013-05-04 09:20:00,59.6,47.0,29.93,ENE,63,2.0,5.0,63,0.00,,,0.00,Wunderground v.1.15,2013-05-04 13:20:00,
2013-05-04 09:21:00,59.6,47.0,29.93,ENE,63,2.0,5.0,63,0.00,,,0.00,Wunderground v.1.15,2013-05-04 13:21:00,
2013-05-04 09:22:00,59.6,46.6,29.93,NE,54,4.0,12.0,62,0.00,,,0.00,Wunderground v.1.15,2013-05-04 13:22:00,
2013-05-04 09:24:00,59.6,46.1,29.93,ENE,61,1.0,13.0,61,0.00,,,0.00,Wunderground v.1.15,2013-05-04 13:24:00,
2013-05-04 09:25:00,59.6,46.6,29.93,NE,41,4.0,13.0,62,0.00,,,0.00,Wunderground v.1.15,2013-05-04 13:25:00,
2013-05-04 09:26:00,59.6,46.6,29.93,ESE,114,8.0,13.0,62,0.00,,,0.00,Wunderground v.1.15,2013-05-04 13:26:00,
2013-05-04 09:27:00,59.6,46.1,29.92,ENE,65,9.0,13.0,61,0.00,,,0.00,Wunderground v.1.15,2013-05-04 13:27:00,
2013-05-04 09:29:00,59.6,46.6,29.92,ENE,67,4.0,13.0,62,0.00,,,0.00,Wunderground v.1.15,2013-05-04 13:29:00,
2013-05-04 09:30:00,59.6,46.6,29.92,ENE,66,3.0,5.0,62,0.00,,,0.00,Wunderground v.1.15,2013-05-04 13:30:00,
2013-05-04 09:31:00,59.6,47.0,29.93,ENE,67,1.0,5.0,63,0.00,,,0.00,Wunderground v.1.15,2013-05-04 13:31:00,
2013-05-04 09:32:00,59.6,47.0,29.92,NE,52,7.0,7.0,63,0.00,,,0.00,Wunderground v.1.15,2013-05-04 13:32:00,
2013-05-04 09:34:00,59.6,46.1,29.93,NE,42,5.0,7.0,61,0.00,,,0.00,Wunderground v.1.15,2013-05-04 13:34:00,
2013-05-04 09:35:00,59.6,46.6,29.93,ENE,63,2.0,7.0,62,0.00,,,0.00,Wunderground v.1.15,2013-05-04 13:35:00,
2013-05-04 09:36:00,59.6,47.0,29.93,ENE,71,4.0,7.0,63,0.00,,,0.00,Wunderground v.1.15,2013-05-04 13:36:00,
2013-05-04 09:38:00,59.7,46.7,29.93,NE,52,9.0,10.0,62,0.00,,,0.00,Wunderground v.1.15,2013-05-04 13:38:00,
2013-05-04 09:40:00,59.7,46.7,29.93,NE,52,5.0,5.0,62,0.00,,,0.00,Wunderground v.1.15,2013-05-04 13:40:00,
2013-05-04 09:41:00,59.8,46.3,29.93,ENE,60,3.0,8.0,61,0.00,,,0.00,Wunderground v.1.15,2013-05-04 13:41:00,
2013-05-04 09:43:00,59.8,46.3,29.92,ENE,58,6.0,12.0,61,0.00,,,0.00,Wunderground v.1.15,2013-05-04 13:43:00,
2013-05-04 09:45:00,59.8,46.7,29.92,NE,52,4.0,12.0,62,0.00,,,0.00,Wunderground v.1.15,2013-05-04 13:45:00,
2013-05-04 09:46:00,59.9,46.8,29.93,NE,56,3.0,12.0,62,0.00,,,0.00,Wunderground v.1.15,2013-05-04 13:46:00,
2013-05-04 09:48:00,59.9,46.0,29.92,NE,50,4.0,12.0,60,0.00,,,0.00,Wunderground v.1.15,2013-05-04 13:48:00,
2013-05-04 09:50:00,60.0,46.5,29.92,ENE,61,3.0,4.0,61,0.00,,,0.00,Wunderground v.1.15,2013-05-04 13:50:00,
2013-05-04 09:51:00,60.0,46.1,29.92,NE,38,7.0,8.0,60,0.00,,,0.00,Wunderground v.1.15,2013-05-04 13:51:00,
2013-05-04 09:52:00,60.0,46.1,29.92,ENE,63,4.0,8.0,60,0.00,,,0.00,Wunderground v.1.15,2013-05-04 13:52:00,
2013-05-04 09:53:00,60.0,46.5,29.92,NE,54,7.0,8.0,61,0.00,,,0.00,Wunderground v.1.15,2013-05-04 13:53:00,
2013-05-04 09:55:00,60.1,46.6,29.92,ENE,75,4.0,8.0,61,0.00,,,0.00,Wunderground v.1.15,2013-05-04 13:55:00,
2013-05-04 09:56:00,60.2,46.7,29.92,ENE,60,2.0,8.0,61,0.00,,,0.00,Wunderground v.1.15,2013-05-04 13:56:00,
2013-05-04 09:57:00,60.2,47.1,29.92,ENE,57,3.0,8.0,62,0.00,,,0.00,Wunderground v.1.15,2013-05-04 13:57:00,
2013-05-04 09:58:00,60.3,47.6,29.93,ENE,71,1.0,8.0,63,0.00,,,0.00,Wunderground v.1.15,2013-05-04 13:58:00,
2013-05-04 10:00:00,60.4,47.7,29.93,NNE,30,5.0,7.0,63,0.00,,,0.00,Wunderground v.1.15,2013-05-04 14:00:00,
2013-05-04 10:01:00,60.4,46.9,29.93,ENE,71,6.0,10.0,61,0.00,,,0.00,Wunderground v.1.15,2013-05-04 14:01:00,
2013-05-04 10:02:00,60.4,46.9,29.93,NE,54,5.0,10.0,61,0.00,,,0.00,Wunderground v.1.15,2013-05-04 14:02:00,
2013-05-04 10:03:00,60.5,47.0,29.93,ENE,65,2.0,10.0,61,0.00,,,0.00,Wunderground v.1.15,2013-05-04 14:03:00,
2013-05-04 10:05:00,60.5,46.5,29.93,ENE,65,3.0,10.0,60,0.00,,,0.00,Wunderground v.1.15,2013-05-04 14:05:00,
2013-05-04 10:06:00,60.5,46.1,29.93,East,80,4.0,10.0,59,0.00,,,0.00,Wunderground v.1.15,2013-05-04 14:06:00,
2013-05-04 10:07:00,60.5,46.1,29.93,ENE,73,1.0,10.0,59,0.00,,,0.00,Wunderground v.1.15,2013-05-04 14:07:00,
2013-05-04 10:08:00,60.5,46.5,29.93,ENE,63,7.0,10.0,60,0.00,,,0.00,Wunderground v.1.15,2013-05-04 14:08:00,
2013-05-04 10:09:00,60.5,46.5,29.93,NE,42,1.0,10.0,60,0.00,,,0.00,Wunderground v.1.15,2013-05-04 14:09:00,
2013-05-04 10:10:00,60.5,47.0,29.93,NE,48,2.0,4.0,61,0.00,,,0.00,Wunderground v.1.15,2013-05-04 14:10:00,
2013-05-04 10:12:00,60.6,46.2,29.93,East,94,5.0,13.0,59,0.00,,,0.00,Wunderground v.1.15,2013-05-04 14:12:00,
2013-05-04 10:13:00,60.6,46.2,29.93,ENE,62,6.0,13.0,59,0.00,,,0.00,Wunderground v.1.15,2013-05-04 14:13:00,
2013-05-04 10:14:00,60.6,47.1,29.93,ENE,64,4.0,13.0,61,0.00,,,0.00,Wunderground v.1.15,2013-05-04 14:14:00,
2013-05-04 10:15:00,60.7,46.3,29.93,ENE,72,3.0,13.0,59,0.00,,,0.00,Wunderground v.1.15,2013-05-04 14:15:00,
2013-05-04 10:17:00,61.0,46.6,29.93,East,90,4.0,13.0,59,0.00,,,0.00,Wunderground v.1.15,2013-05-04 14:17:00,
2013-05-04 10:18:00,61.2,47.2,29.93,NE,56,8.0,13.0,60,0.00,,,0.00,Wunderground v.1.15,2013-05-04 14:18:00,
2013-05-04 10:19:00,61.3,46.8,29.93,NE,37,6.0,13.0,59,0.00,,,0.00,Wunderground v.1.15,2013-05-04 14:19:00,
2013-05-04 10:20:00,61.5,47.0,29.93,ENE,58,5.0,9.0,59,0.00,,,0.00,Wunderground v.1.15,2013-05-04 14:20:00,
2013-05-04 10:22:00,61.4,45.6,29.93,North,11,2.0,9.0,56,0.00,,,0.00,Wunderground v.1.15,2013-05-04 14:22:00,
2013-05-04 10:23:00,61.5,47.0,29.93,NE,47,1.0,9.0,59,0.00,,,0.00,Wunderground v.1.15,2013-05-04 14:23:00,
2013-05-04 10:24:00,61.6,48.0,29.93,NE,48,0.0,9.0,61,0.00,,,0.00,Wunderground v.1.15,2013-05-04 14:24:00,
2013-05-04 10:25:00,61.6,48.0,29.93,NE,56,0.0,9.0,61,0.00,,,0.00,Wunderground v.1.15,2013-05-04 14:25:00,
2013-05-04 10:28:00,61.7,47.2,29.93,ENE,62,2.0,9.0,59,0.00,,,0.00,Wunderground v.1.15,2013-05-04 14:28:00,
2013-05-04 10:29:00,61.7,47.2,29.93,NNE,25,5.0,9.0,59,0.00,,,0.00,Wunderground v.1.15,2013-05-04 14:29:00,
2013-05-04 10:31:00,61.5,46.1,29.92,ENE,65,4.0,8.0,57,0.00,,,0.00,Wunderground v.1.15,2013-05-04 14:31:00,
2013-05-04 10:33:00,61.4,46.5,29.93,East,85,3.0,8.0,58,0.00,,,0.00,Wunderground v.1.15,2013-05-04 14:33:00,
2013-05-04 10:34:00,61.4,46.5,29.93,East,80,2.0,8.0,58,0.00,,,0.00,Wunderground v.1.15,2013-05-04 14:34:00,
2013-05-04 10:36:00,61.7,47.7,29.93,NE,43,5.0,10.0,60,0.00,,,0.00,Wunderground v.1.15,2013-05-04 14:36:00,
2013-05-04 10:38:00,62.3,49.5,29.93,NE,47,4.0,10.0,63,0.00,,,0.00,Wunderground v.1.15,2013-05-04 14:38:00,
2013-05-04 10:39:00,62.4,49.6,29.93,NE,47,0.0,10.0,63,0.00,,,0.00,Wunderground v.1.15,2013-05-04 14:39:00,
2013-05-04 10:41:00,63.1,48.1,29.93,East,99,2.0,5.0,58,0.00,,,0.00,Wunderground v.1.15,2013-05-04 14:41:00,
2013-05-04 10:44:00,63.7,50.0,29.93,East,80,2.0,8.0,61,0.00,,,0.00,Wunderground v.1.15,2013-05-04 14:44:00,
2013-05-04 10:46:00,64.0,48.9,29.93,NE,52,4.0,8.0,58,0.00,,,0.00,Wunderground v.1.15,2013-05-04 14:46:00,
2013-05-04 10:49:00,64.1,48.5,29.93,ENE,67,5.0,8.0,57,0.00,,,0.00,Wunderground v.1.15,2013-05-04 14:49:00,
2013-05-04 10:50:00,64.0,48.5,29.93,NE,46,6.0,6.0,57,0.00,,,0.00,Wunderground v.1.15,2013-05-04 14:50:00,
2013-05-04 10:52:00,63.6,47.6,29.93,NE,47,6.0,12.0,56,0.00,,,0.00,Wunderground v.1.15,2013-05-04 14:52:00,
2013-05-04 10:54:00,63.1,47.1,29.93,ENE,65,4.0,12.0,56,0.00,,,0.00,Wunderground v.1.15,2013-05-04 14:54:00,
2013-05-04 10:55:00,63.0,46.6,29.93,NE,40,4.0,12.0,55,0.00,,,0.00,Wunderground v.1.15,2013-05-04 14:55:00,
2013-05-04 10:57:00,62.8,46.4,29.93,NE,36,4.0,12.0,55,0.00,,,0.00,Wunderground v.1.15,2013-05-04 14:57:00,
2013-05-04 10:59:00,62.8,48.7,29.93,ENE,66,4.0,12.0,60,0.00,,,0.00,Wunderground v.1.15,2013-05-04 14:59:00,
2013-05-04 11:00:00,62.8,47.8,29.93,ENE,69,4.0,5.0,58,0.00,,,0.00,Wunderground v.1.15,2013-05-04 15:00:00,
2013-05-04 11:02:00,63.0,48.0,29.93,ENE,64,3.0,5.0,58,0.00,,,0.00,Wunderground v.1.15,2013-05-04 15:02:00,
2013-05-04 11:05:00,63.1,47.6,29.93,NE,38,5.0,9.0,57,0.00,,,0.00,Wunderground v.1.15,2013-05-04 15:05:00,
2013-05-04 11:07:00,62.9,47.9,29.93,NE,40,5.0,9.0,58,0.00,,,0.00,Wunderground v.1.15,2013-05-04 15:07:00,
2013-05-04 11:10:00,62.6,47.1,29.94,NE,47,4.0,7.0,57,0.00,,,0.00,Wunderground v.1.15,2013-05-04 15:10:00,
2013-05-04 11:11:00,62.5,47.1,29.93,NE,42,2.0,7.0,57,0.00,,,0.00,Wunderground v.1.15,2013-05-04 15:11:00,
2013-05-04 11:13:00,62.4,47.4,29.94,ENE,71,6.0,8.0,58,0.00,,,0.00,Wunderground v.1.15,2013-05-04 15:13:00,
2013-05-04 11:15:00,62.2,46.8,29.94,NE,50,3.0,8.0,57,0.00,,,0.00,Wunderground v.1.15,2013-05-04 15:15:00,
2013-05-04 11:16:00,62.2,47.2,29.94,NE,50,4.0,9.0,58,0.00,,,0.00,Wunderground v.1.15,2013-05-04 15:16:00,
2013-05-04 11:18:00,62.3,47.8,29.94,ENE,71,3.0,9.0,59,0.00,,,0.00,Wunderground v.1.15,2013-05-04 15:18:00,
2013-05-04 11:20:00,62.3,46.4,29.94,NE,54,3.0,4.0,56,0.00,,,0.00,Wunderground v.1.15,2013-05-04 15:20:00,
2013-05-04 11:21:00,62.4,46.5,29.94,East,85,0.0,4.0,56,0.00,,,0.00,Wunderground v.1.15,2013-05-04 15:21:00,
2013-05-04 11:23:00,62.5,47.1,29.94,NE,48,6.0,7.0,57,0.00,,,0.00,Wunderground v.1.15,2013-05-04 15:23:00,
2013-05-04 11:25:00,62.6,47.1,29.93,NNE,31,3.0,7.0,57,0.00,,,0.00,Wunderground v.1.15,2013-05-04 15:25:00,
2013-05-04 11:26:00,62.7,47.2,29.93,NE,34,6.0,7.0,57,0.00,,,0.00,Wunderground v.1.15,2013-05-04 15:26:00,
2013-05-04 11:29:00,63.8,50.1,29.93,NE,48,7.0,8.0,61,0.00,,,0.00,Wunderground v.1.15,2013-05-04 15:29:00,
2013-05-04 11:31:00,64.6,49.9,29.94,NE,45,6.0,7.0,59,0.00,,,0.00,Wunderground v.1.15,2013-05-04 15:31:00,
2013-05-04 11:32:00,64.7,50.0,29.94,NE,56,4.0,7.0,59,0.00,,,0.00,Wunderground v.1.15,2013-05-04 15:32:00,
2013-05-04 11:34:00,64.7,49.1,29.94,ENE,71,5.0,8.0,57,0.00,,,0.00,Wunderground v.1.15,2013-05-04 15:34:00,
2013-05-04 11:36:00,64.7,49.1,29.93,NE,53,4.0,8.0,57,0.00,,,0.00,Wunderground v.1.15,2013-05-04 15:36:00,
2013-05-04 11:37:00,64.7,49.1,29.93,NE,42,1.0,8.0,57,0.00,,,0.00,Wunderground v.1.15,2013-05-04 15:37:00,
2013-05-04 11:39:00,65.4,51.1,29.93,NE,48,2.0,8.0,60,0.00,,,0.00,Wunderground v.1.15,2013-05-04 15:39:00,
2013-05-04 11:41:00,65.8,50.6,29.93,NE,54,3.0,7.0,58,0.00,,,0.00,Wunderground v.1.15,2013-05-04 15:41:00,
2013-05-04 11:42:00,65.8,50.6,29.93,NE,56,7.0,7.0,58,0.00,,,0.00,Wunderground v.1.15,2013-05-04 15:42:00,
2013-05-04 11:44:00,65.5,49.4,29.93,ENE,58,4.0,7.0,56,0.00,,,0.00,Wunderground v.1.15,2013-05-04 15:44:00,
2013-05-04 11:46:00,65.0,49.4,29.93,NE,48,4.0,7.0,57,0.00,,,0.00,Wunderground v.1.15,2013-05-04 15:46:00,
2013-05-04 11:47:00,65.0,49.4,29.93,NE,48,2.0,7.0,57,0.00,,,0.00,Wunderground v.1.15,2013-05-04 15:47:00,
2013-05-04 11:49:00,64.8,49.7,29.93,NE,56,2.0,7.0,58,0.00,,,0.00,Wunderground v.1.15,2013-05-04 15:49:00,
2013-05-04 11:51:00,64.7,49.1,29.93,NE,56,3.0,4.0,57,0.00,,,0.00,Wunderground v.1.15,2013-05-04 15:51:00,
2013-05-04 11:52:00,64.7,49.1,29.93,NE,54,2.0,4.0,57,0.00,,,0.00,Wunderground v.1.15,2013-05-04 15:52:00,
2013-05-04 11:53:00,64.8,49.2,29.93,NE,54,0.0,4.0,57,0.00,,,0.00,Wunderground v.1.15,2013-05-04 15:53:00,
2013-05-04 11:54:00,64.9,50.7,29.92,ENE,72,5.0,6.0,60,0.00,,,0.00,Wunderground v.1.15,2013-05-04 15:54:00,
2013-05-04 11:57:00,65.0,49.4,29.92,ENE,71,3.0,8.0,57,0.00,,,0.00,Wunderground v.1.15,2013-05-04 15:57:00,
2013-05-04 11:58:00,65.2,49.6,29.92,NE,48,3.0,8.0,57,0.00,,,0.00,Wunderground v.1.15,2013-05-04 15:58:00,
2013-05-04 11:59:00,65.5,49.9,29.92,ENE,67,3.0,8.0,57,0.00,,,0.00,Wunderground v.1.15,2013-05-04 15:59:00,
2013-05-04 12:02:00,66.3,51.1,29.92,East,85,6.0,7.0,58,0.00,,,0.00,Wunderground v.1.15,2013-05-04 16:02:00,
2013-05-04 12:03:00,66.7,50.5,29.92,NE,40,6.0,7.0,56,0.00,,,0.00,Wunderground v.1.15,2013-05-04 16:03:00,
2013-05-04 12:04:00,66.8,49.6,29.92,NE,38,3.0,7.0,54,0.00,,,0.00,Wunderground v.1.15,2013-05-04 16:04:00,
2013-05-04 12:05:00,66.8,49.6,29.92,NE,41,5.0,7.0,54,0.00,,,0.00,Wunderground v.1.15,2013-05-04 16:05:00,
2013-05-04 12:07:00,66.7,48.5,29.92,ENE,62,3.0,7.0,52,0.00,,,0.00,Wunderground v.1.15,2013-05-04 16:07:00,
2013-05-04 12:09:00,66.4,48.2,29.92,ENE,61,8.0,9.0,52,0.00,,,0.00,Wunderground v.1.15,2013-05-04 16:09:00,
2013-05-04 12:10:00,66.1,48.5,29.92,ENE,69,1.0,4.0,53,0.00,,,0.00,Wunderground v.1.15,2013-05-04 16:10:00,
2013-05-04 12:12:00,65.9,49.3,29.92,NE,51,1.0,4.0,55,0.00,,,0.00,Wunderground v.1.15,2013-05-04 16:12:00,
2013-05-04 12:14:00,66.2,50.0,29.92,ENE,61,0.0,4.0,56,0.00,,,0.00,Wunderground v.1.15,2013-05-04 16:14:00,
2013-05-04 12:15:00,66.5,51.7,29.92,NE,50,4.0,4.0,59,0.00,,,0.00,Wunderground v.1.15,2013-05-04 16:15:00,
2013-05-04 12:17:00,67.0,48.8,29.92,East,80,0.0,6.0,52,0.00,,,0.00,Wunderground v.1.15,2013-05-04 16:17:00,
2013-05-04 12:19:00,67.3,50.6,29.92,NE,43,0.0,7.0,55,0.00,,,0.00,Wunderground v.1.15,2013-05-04 16:19:00,
2013-05-04 12:20:00,67.3,49.1,29.92,NE,43,1.0,2.0,52,0.00,,,0.00,Wunderground v.1.15,2013-05-04 16:20:00,
2013-05-04 12:22:00,67.3,50.6,29.91,NE,50,2.0,4.0,55,0.00,,,0.00,Wunderground v.1.15,2013-05-04 16:22:00,
2013-05-04 12:24:00,67.6,51.3,29.92,NE,50,4.0,6.0,56,0.00,,,0.00,Wunderground v.1.15,2013-05-04 16:24:00,
2013-05-04 12:25:00,67.8,46.3,29.91,ENE,57,2.0,8.0,46,0.00,,,0.00,Wunderground v.1.15,2013-05-04 16:25:00,
2013-05-04 12:26:00,67.9,46.3,29.91,ENE,57,0.0,8.0,46,0.00,,,0.00,Wunderground v.1.15,2013-05-04 16:26:00,
2013-05-04 12:28:00,68.5,50.2,29.91,ENE,67,5.0,8.0,52,0.00,,,0.00,Wunderground v.1.15,2013-05-04 16:28:00,
2013-05-04 12:29:00,68.5,50.2,29.92,North,359,3.0,8.0,52,0.00,,,0.00,Wunderground v.1.15,2013-05-04 16:29:00,
2013-05-04 12:30:00,68.7,53.3,29.92,NE,49,6.0,6.0,58,0.00,,,0.00,Wunderground v.1.15,2013-05-04 16:30:00,
2013-05-04 12:31:00,68.7,53.3,29.92,ENE,66,4.0,8.0,58,0.00,,,0.00,Wunderground v.1.15,2013-05-04 16:31:00,
2013-05-04 12:33:00,68.9,49.5,29.92,NE,48,0.0,9.0,50,0.00,,,0.00,Wunderground v.1.15,2013-05-04 16:33:00,
2013-05-04 12:34:00,68.9,49.5,29.91,NE,48,0.0,9.0,50,0.00,,,0.00,Wunderground v.1.15,2013-05-04 16:34:00,
2013-05-04 12:35:00,68.9,47.3,29.92,ESE,121,2.0,9.0,46,0.00,,,0.00,Wunderground v.1.15,2013-05-04 16:35:00,
2013-05-04 12:36:00,69.1,52.7,29.92,ENE,62,1.0,9.0,56,0.00,,,0.00,Wunderground v.1.15,2013-05-04 16:36:00,
2013-05-04 12:38:00,69.0,49.0,29.92,NE,38,1.0,9.0,49,0.00,,,0.00,Wunderground v.1.15,2013-05-04 16:38:00,
2013-05-04 12:39:00,68.9,46.7,29.92,NE,38,2.0,9.0,45,0.00,,,0.00,Wunderground v.1.15,2013-05-04 16:39:00,
2013-05-04 12:40:00,68.8,47.2,29.92,SSE,148,0.0,2.0,46,0.00,,,0.00,Wunderground v.1.15,2013-05-04 16:40:00,
2013-05-04 12:41:00,69.0,52.2,29.92,SSE,148,0.0,2.0,55,0.00,,,0.00,Wunderground v.1.15,2013-05-04 16:41:00,
2013-05-04 12:43:00,69.3,50.4,29.91,ESE,108,0.0,4.0,51,0.00,,,0.00,Wunderground v.1.15,2013-05-04 16:43:00,
2013-05-04 12:44:00,69.4,49.4,29.92,ENE,58,6.0,6.0,49,0.00,,,0.00,Wunderground v.1.15,2013-05-04 16:44:00,
2013-05-04 12:46:00,69.4,49.4,29.92,ENE,58,4.0,10.0,49,0.00,,,0.00,Wunderground v.1.15,2013-05-04 16:46:00,
2013-05-04 12:48:00,68.8,48.3,29.92,ENE,62,1.0,10.0,48,0.00,,,0.00,Wunderground v.1.15,2013-05-04 16:48:00,
2013-05-04 12:49:00,68.7,47.6,29.92,ENE,62,0.0,10.0,47,0.00,,,0.00,Wunderground v.1.15,2013-05-04 16:49:00,
2013-05-04 12:51:00,68.8,48.9,29.92,ENE,62,0.0,2.0,49,0.00,,,0.00,Wunderground v.1.15,2013-05-04 16:51:00,
2013-05-04 12:53:00,68.7,50.4,29.91,NE,41,5.0,7.0,52,0.00,,,0.00,Wunderground v.1.15,2013-05-04 16:53:00,
2013-05-04 12:54:00,68.7,49.3,29.91,ENE,63,0.0,7.0,50,0.00,,,0.00,Wunderground v.1.15,2013-05-04 16:54:00,
2013-05-04 12:56:00,69.0,54.1,29.91,ENE,63,0.0,7.0,59,0.00,,,0.00,Wunderground v.1.15,2013-05-04 16:56:00,
2013-05-04 12:57:00,69.0,50.6,29.91,NNE,14,5.0,7.0,52,0.00,,,0.00,Wunderground v.1.15,2013-05-04 16:57:00,
2013-05-04 12:59:00,69.3,52.4,29.91,NE,44,2.0,7.0,55,0.00,,,0.00,Wunderground v.1.15,2013-05-04 16:59:00,
2013-05-04 13:01:00,69.6,52.7,29.91,NE,50,0.0,3.0,55,0.00,,,0.00,Wunderground v.1.15,2013-05-04 17:01:00,
2013-05-04 13:02:00,69.6,51.2,29.91,NE,50,0.0,3.0,52,0.00,,,0.00,Wunderground v.1.15,2013-05-04 17:02:00,
2013-05-04 13:04:00,70.1,53.2,29.91,ESE,120,2.0,3.0,55,0.00,,,0.00,Wunderground v.1.15,2013-05-04 17:04:00,
2013-05-04 13:06:00,70.3,52.4,29.91,ESE,115,0.0,3.0,53,0.00,,,0.00,Wunderground v.1.15,2013-05-04 17:06:00,
2013-05-04 13:07:00,70.3,52.4,29.91,ESE,115,0.0,3.0,53,0.00,,,0.00,Wunderground v.1.15,2013-05-04 17:07:00,
2013-05-04 13:10:00,69.9,51.5,29.91,ENE,73,0.0,1.0,52,0.00,,,0.00,Wunderground v.1.15,2013-05-04 17:10:00,
2013-05-04 13:12:00,69.9,52.0,29.91,ENE,64,4.0,6.0,53,0.00,,,0.00,Wunderground v.1.15,2013-05-04 17:12:00,
2013-05-04 13:15:00,70.2,53.3,29.91,ENE,60,2.0,6.0,55,0.00,,,0.00,Wunderground v.1.15,2013-05-04 17:15:00,
2013-05-04 13:17:00,70.1,54.2,29.91,NE,41,1.0,6.0,57,0.00,,,0.00,Wunderground v.1.15,2013-05-04 17:17:00,
2013-05-04 13:18:00,70.1,50.6,29.91,NE,36,6.0,8.0,50,0.00,,,0.00,Wunderground v.1.15,2013-05-04 17:18:00,
2013-05-04 13:20:00,70.0,52.1,29.91,ENE,65,0.0,3.0,53,0.00,,,0.00,Wunderground v.1.15,2013-05-04 17:20:00,
2013-05-04 13:22:00,69.9,52.0,29.91,ENE,65,4.0,7.0,53,0.00,,,0.00,Wunderground v.1.15,2013-05-04 17:22:00,
2013-05-04 13:23:00,69.9,52.0,29.91,NE,46,5.0,7.0,53,0.00,,,0.00,Wunderground v.1.15,2013-05-04 17:23:00,
2013-05-04 13:25:00,69.6,51.7,29.91,East,80,3.0,7.0,53,0.00,,,0.00,Wunderground v.1.15,2013-05-04 17:25:00,
2013-05-04 13:28:00,69.9,52.0,29.90,ENE,76,2.0,7.0,53,0.00,,,0.00,Wunderground v.1.15,2013-05-04 17:28:00,
2013-05-04 13:30:00,70.5,53.1,29.91,ENE,62,2.0,6.0,54,0.00,,,0.00,Wunderground v.1.15,2013-05-04 17:30:00,
2013-05-04 13:33:00,70.7,50.6,29.91,ENE,71,0.0,7.0,49,0.00,,,0.00,Wunderground v.1.15,2013-05-04 17:33:00,
2013-05-04 13:35:00,70.8,52.3,29.91,NE,47,0.0,7.0,52,0.00,,,0.00,Wunderground v.1.15,2013-05-04 17:35:00,
2013-05-04 13:38:00,71.7,53.7,29.90,NE,47,1.0,7.0,53,0.00,,,0.00,Wunderground v.1.15,2013-05-04 17:38:00,
2013-05-04 13:41:00,72.1,52.4,29.90,NNE,31,0.0,2.0,50,0.00,,,0.00,Wunderground v.1.15,2013-05-04 17:41:00,
2013-05-04 13:43:00,71.9,51.7,29.90,NE,46,3.0,8.0,49,0.00,,,0.00,Wunderground v.1.15,2013-05-04 17:43:00,
2013-05-04 13:46:00,71.4,51.2,29.90,ENE,63,8.0,8.0,49,0.00,,,0.00,Wunderground v.1.15,2013-05-04 17:46:00,
2013-05-04 13:48:00,71.0,50.3,29.90,NE,55,4.0,10.0,48,0.00,,,0.00,Wunderground v.1.15,2013-05-04 17:48:00,
2013-05-04 13:49:00,71.0,51.4,29.90,NE,56,0.0,10.0,50,0.00,,,0.00,Wunderground v.1.15,2013-05-04 17:49:00,
2013-05-04 13:51:00,71.1,52.6,29.90,NE,56,0.0,3.0,52,0.00,,,0.00,Wunderground v.1.15,2013-05-04 17:51:00,
2013-05-04 13:53:00,71.9,53.3,29.90,ENE,71,0.0,3.0,52,0.00,,,0.00,Wunderground v.1.15,2013-05-04 17:53:00,
2013-05-04 13:54:00,71.9,52.2,29.90,NE,54,0.0,3.0,50,0.00,,,0.00,Wunderground v.1.15,2013-05-04 17:54:00,
2013-05-04 13:56:00,71.8,54.8,29.90,East,101,2.0,4.0,55,0.00,,,0.00,Wunderground v.1.15,2013-05-04 17:56:00,
2013-05-04 13:58:00,71.2,50.5,29.90,NE,36,0.0,7.0,48,0.00,,,0.00,Wunderground v.1.15,2013-05-04 17:58:00,
2013-05-04 13:59:00,71.2,50.5,29.90,NE,36,0.0,7.0,48,0.00,,,0.00,Wunderground v.1.15,2013-05-04 17:59:00,
2013-05-04 14:01:00,70.8,52.3,29.90,NE,56,3.0,7.0,52,0.00,,,0.00,Wunderground v.1.15,2013-05-04 18:01:00,
2013-05-04 14:02:00,70.7,53.7,29.90,NE,36,3.0,8.0,55,0.00,,,0.00,Wunderground v.1.15,2013-05-04 18:02:00,
2013-05-04 14:03:00,70.5,51.0,29.90,ESE,111,0.0,8.0,50,0.00,,,0.00,Wunderground v.1.15,2013-05-04 18:03:00,
2013-05-04 14:04:00,70.6,50.5,29.90,ESE,111,0.0,8.0,49,0.00,,,0.00,Wunderground v.1.15,2013-05-04 18:04:00,
2013-05-04 14:06:00,71.0,49.7,29.90,ENE,74,0.0,8.0,47,0.00,,,0.00,Wunderground v.1.15,2013-05-04 18:06:00,
2013-05-04 14:07:00,71.5,49.0,29.90,SSW,211,0.0,8.0,45,0.00,,,0.00,Wunderground v.1.15,2013-05-04 18:07:00,
2013-05-04 14:08:00,72.3,55.2,29.90,SSW,211,0.0,8.0,55,0.00,,,0.00,Wunderground v.1.15,2013-05-04 18:08:00,
2013-05-04 14:09:00,73.0,57.3,29.90,SSW,211,0.0,8.0,58,0.00,,,0.00,Wunderground v.1.15,2013-05-04 18:09:00,
2013-05-04 14:11:00,74.0,56.3,29.90,East,80,0.0,4.0,54,0.00,,,0.00,Wunderground v.1.15,2013-05-04 18:11:00,
2013-05-04 14:12:00,74.2,52.7,29.90,ENE,73,1.0,4.0,47,0.00,,,0.00,Wunderground v.1.15,2013-05-04 18:12:00,
2013-05-04 14:14:00,73.8,48.6,29.90,SW,214,3.0,4.0,41,0.00,,,0.00,Wunderground v.1.15,2013-05-04 18:14:00,
2013-05-04 14:15:00,73.5,55.3,29.90,SSW,210,0.0,4.0,53,0.00,,,0.00,Wunderground v.1.15,2013-05-04 18:15:00,
2013-05-04 14:16:00,73.8,56.6,29.90,East,85,1.0,5.0,55,0.00,,,0.00,Wunderground v.1.15,2013-05-04 18:16:00,
2013-05-04 14:18:00,73.3,51.8,29.90,NE,47,0.0,5.0,47,0.00,,,0.00,Wunderground v.1.15,2013-05-04 18:18:00,
2013-05-04 14:19:00,73.1,52.8,29.90,ENE,72,2.0,5.0,49,0.00,,,0.00,Wunderground v.1.15,2013-05-04 18:19:00,
2013-05-04 14:20:00,73.0,56.4,29.89,ENE,64,0.0,3.0,56,0.00,,,0.00,Wunderground v.1.15,2013-05-04 18:20:00,
2013-05-04 14:22:00,72.9,52.6,29.90,NE,37,3.0,6.0,49,0.00,,,0.00,Wunderground v.1.15,2013-05-04 18:22:00,
2013-05-04 14:23:00,72.8,52.0,29.90,East,80,2.0,6.0,48,0.00,,,0.00,Wunderground v.1.15,2013-05-04 18:23:00,
2013-05-04 14:24:00,72.5,53.3,29.89,NE,39,5.0,10.0,51,0.00,,,0.00,Wunderground v.1.15,2013-05-04 18:24:00,
2013-05-04 14:25:00,72.1,53.0,29.89,NE,40,0.0,10.0,51,0.00,,,0.00,Wunderground v.1.15,2013-05-04 18:25:00,
2013-05-04 14:27:00,71.9,52.8,29.89,NNE,16,0.0,10.0,51,0.00,,,0.00,Wunderground v.1.15,2013-05-04 18:27:00,
2013-05-04 14:28:00,72.0,54.4,29.89,NNE,17,0.0,10.0,54,0.00,,,0.00,Wunderground v.1.15,2013-05-04 18:28:00,
2013-05-04 14:29:00,72.0,52.3,29.89,NE,37,0.0,10.0,50,0.00,,,0.00,Wunderground v.1.15,2013-05-04 18:29:00,
2013-05-04 14:30:00,72.1,54.0,29.89,NE,37,0.0,2.0,53,0.00,,,0.00,Wunderground v.1.15,2013-05-04 18:30:00,
2013-05-04 14:32:00,72.5,52.8,29.89,NE,56,4.0,5.0,50,0.00,,,0.00,Wunderground v.1.15,2013-05-04 18:32:00,
2013-05-04 14:33:00,72.6,55.5,29.89,NE,51,4.0,5.0,55,0.00,,,0.00,Wunderground v.1.15,2013-05-04 18:33:00,
2013-05-04 14:34:00,72.6,52.3,29.89,NE,54,5.0,9.0,49,0.00,,,0.00,Wunderground v.1.15,2013-05-04 18:34:00,
2013-05-04 14:35:00,72.6,52.3,29.89,East,90,3.0,10.0,49,0.00,,,0.00,Wunderground v.1.15,2013-05-04 18:35:00,
2013-05-04 14:38:00,72.4,54.8,29.89,ENE,71,2.0,10.0,54,0.00,,,0.00,Wunderground v.1.15,2013-05-04 18:38:00,
2013-05-04 14:39:00,72.4,54.8,29.89,ENE,59,1.0,10.0,54,0.00,,,0.00,Wunderground v.1.15,2013-05-04 18:39:00,
2013-05-04 14:40:00,72.3,51.5,29.89,WSW,253,4.0,4.0,48,0.00,,,0.00,Wunderground v.1.15,2013-05-04 18:40:00,
2013-05-04 14:41:00,72.3,52.6,29.89,NNE,21,4.0,7.0,50,0.00,,,0.00,Wunderground v.1.15,2013-05-04 18:41:00,
2013-05-04 14:43:00,72.1,53.0,29.89,ENE,59,3.0,7.0,51,0.00,,,0.00,Wunderground v.1.15,2013-05-04 18:43:00,
2013-05-04 14:44:00,72.0,52.9,29.89,NE,52,8.0,8.0,51,0.00,,,0.00,Wunderground v.1.15,2013-05-04 18:44:00,
2013-05-04 14:45:00,71.9,55.3,29.89,ENE,63,5.0,8.0,56,0.00,,,0.00,Wunderground v.1.15,2013-05-04 18:45:00,
2013-05-04 14:46:00,72.0,54.9,29.89,NE,49,3.0,8.0,55,0.00,,,0.00,Wunderground v.1.15,2013-05-04 18:46:00,
2013-05-04 14:49:00,73.0,56.4,29.89,NE,46,3.0,8.0,56,0.00,,,0.00,Wunderground v.1.15,2013-05-04 18:49:00,
2013-05-04 14:51:00,73.5,55.8,29.89,NE,54,0.0,3.0,54,0.00,,,0.00,Wunderground v.1.15,2013-05-04 18:51:00,
2013-05-04 14:54:00,73.1,51.1,29.89,NE,54,5.0,8.0,46,0.00,,,0.00,Wunderground v.1.15,2013-05-04 18:54:00,
2013-05-04 14:55:00,72.8,52.0,29.89,NE,51,0.0,8.0,48,0.00,,,0.00,Wunderground v.1.15,2013-05-04 18:55:00,
2013-05-04 14:56:00,72.6,55.0,29.89,NE,51,0.0,8.0,54,0.00,,,0.00,Wunderground v.1.15,2013-05-04 18:56:00,
2013-05-04 14:59:00,72.1,51.3,29.89,ENE,73,4.0,8.0,48,0.00,,,0.00,Wunderground v.1.15,2013-05-04 18:59:00,
2013-05-04 15:00:00,72.0,52.3,29.89,ENE,68,1.0,3.0,50,0.00,,,0.00,Wunderground v.1.15,2013-05-04 19:00:00,
2013-05-04 15:01:00,71.6,52.5,29.89,ENE,61,2.0,4.0,51,0.00,,,0.00,Wunderground v.1.15,2013-05-04 19:01:00,
2013-05-04 15:02:00,71.5,54.0,29.89,ENE,57,4.0,4.0,54,0.00,,,0.00,Wunderground v.1.15,2013-05-04 19:02:00,
2013-05-04 15:04:00,71.5,54.0,29.89,NE,51,0.0,5.0,54,0.00,,,0.00,Wunderground v.1.15,2013-05-04 19:04:00,
2013-05-04 15:05:00,71.5,55.0,29.89,NE,51,0.0,5.0,56,0.00,,,0.00,Wunderground v.1.15,2013-05-04 19:05:00,
2013-05-04 15:06:00,71.6,55.1,29.89,ENE,60,0.0,5.0,56,0.00,,,0.00,Wunderground v.1.15,2013-05-04 19:06:00,
2013-05-04 15:07:00,71.6,52.5,29.89,ENE,60,0.0,5.0,51,0.00,,,0.00,Wunderground v.1.15,2013-05-04 19:07:00,
2013-05-04 15:09:00,71.5,54.5,29.89,East,80,3.0,5.0,55,0.00,,,0.00,Wunderground v.1.15,2013-05-04 19:09:00,
2013-05-04 15:10:00,71.5,53.5,29.89,East,80,0.0,2.0,53,0.00,,,0.00,Wunderground v.1.15,2013-05-04 19:10:00,
2013-05-04 15:11:00,71.7,57.1,29.89,NE,50,2.0,7.0,60,0.00,,,0.00,Wunderground v.1.15,2013-05-04 19:11:00,
2013-05-04 15:13:00,71.8,54.3,29.89,ENE,60,0.0,7.0,54,0.00,,,0.00,Wunderground v.1.15,2013-05-04 19:13:00,
2013-05-04 15:15:00,71.9,53.3,29.89,NNE,30,2.0,7.0,52,0.00,,,0.00,Wunderground v.1.15,2013-05-04 19:15:00,
2013-05-04 15:17:00,72.1,55.5,29.89,NE,44,0.0,7.0,56,0.00,,,0.00,Wunderground v.1.15,2013-05-04 19:17:00,
2013-05-04 15:18:00,72.1,54.5,29.89,NE,42,0.0,7.0,54,0.00,,,0.00,Wunderground v.1.15,2013-05-04 19:18:00,
2013-05-04 15:20:00,71.9,54.9,29.89,ENE,65,1.0,6.0,55,0.00,,,0.00,Wunderground v.1.15,2013-05-04 19:20:00,
2013-05-04 15:22:00,71.7,53.1,29.89,NNE,31,4.0,7.0,52,0.00,,,0.00,Wunderground v.1.15,2013-05-04 19:22:00,
2013-05-04 15:23:00,71.7,52.6,29.89,NNE,32,0.0,7.0,51,0.00,,,0.00,Wunderground v.1.15,2013-05-04 19:23:00,
2013-05-04 15:25:00,72.1,53.5,29.89,NE,50,2.0,7.0,52,0.00,,,0.00,Wunderground v.1.15,2013-05-04 19:25:00,
2013-05-04 15:28:00,72.1,53.0,29.89,NE,50,0.0,7.0,51,0.00,,,0.00,Wunderground v.1.15,2013-05-04 19:28:00,
2013-05-04 15:30:00,72.0,54.4,29.89,NE,53,3.0,3.0,54,0.00,,,0.00,Wunderground v.1.15,2013-05-04 19:30:00,
2013-05-04 15:31:00,71.9,52.2,29.89,NE,53,0.0,4.0,50,0.00,,,0.00,Wunderground v.1.15,2013-05-04 19:31:00,
2013-05-04 15:33:00,71.6,52.0,29.89,NE,53,3.0,6.0,50,0.00,,,0.00,Wunderground v.1.15,2013-05-04 19:33:00,
2013-05-04 15:35:00,71.4,52.9,29.89,NE,54,1.0,7.0,52,0.00,,,0.00,Wunderground v.1.15,2013-05-04 19:35:00,
2013-05-04 15:36:00,71.3,53.8,29.89,ENE,58,1.0,7.0,54,0.00,,,0.00,Wunderground v.1.15,2013-05-04 19:36:00,
2013-05-04 15:38:00,71.4,52.9,29.89,ENE,58,0.0,7.0,52,0.00,,,0.00,Wunderground v.1.15,2013-05-04 19:38:00,
2013-05-04 15:40:00,72.1,55.0,29.89,ENE,58,0.0,2.0,55,0.00,,,0.00,Wunderground v.1.15,2013-05-04 19:40:00,
2013-05-04 15:41:00,72.2,52.0,29.88,ENE,58,0.0,2.0,49,0.00,,,0.00,Wunderground v.1.15,2013-05-04 19:41:00,
2013-05-04 15:43:00,73.0,56.4,29.89,NE,56,0.0,3.0,56,0.00,,,0.00,Wunderground v.1.15,2013-05-04 19:43:00,
2013-05-04 15:45:00,73.9,57.2,29.88,ENE,57,0.0,3.0,56,0.00,,,0.00,Wunderground v.1.15,2013-05-04 19:45:00,
2013-05-04 15:46:00,74.0,57.3,29.88,ENE,57,0.0,3.0,56,0.00,,,0.00,Wunderground v.1.15,2013-05-04 19:46:00,
2013-05-04 15:48:00,73.8,54.5,29.88,NE,56,2.0,4.0,51,0.00,,,0.00,Wunderground v.1.15,2013-05-04 19:48:00,
2013-05-04 15:49:00,73.8,54.5,29.88,NNE,23,6.0,6.0,51,0.00,,,0.00,Wunderground v.1.15,2013-05-04 19:49:00,
2013-05-04 15:51:00,73.8,54.5,29.88,NNE,17,3.0,6.0,51,0.00,,,0.00,Wunderground v.1.15,2013-05-04 19:51:00,
2013-05-04 15:53:00,73.9,53.5,29.88,NNE,22,6.0,6.0,49,0.00,,,0.00,Wunderground v.1.15,2013-05-04 19:53:00,
2013-05-04 15:54:00,73.9,55.7,29.88,NE,50,2.0,6.0,53,0.00,,,0.00,Wunderground v.1.15,2013-05-04 19:54:00,
2013-05-04 15:56:00,73.8,54.0,29.88,NE,48,0.0,6.0,50,0.00,,,0.00,Wunderground v.1.15,2013-05-04 19:56:00,
2013-05-04 15:58:00,73.7,53.9,29.88,NE,46,3.0,6.0,50,0.00,,,0.00,Wunderground v.1.15,2013-05-04 19:58:00,
2013-05-04 16:00:00,73.6,55.9,29.88,ENE,64,2.0,3.0,54,0.00,,,0.00,Wunderground v.1.15,2013-05-04 20:00:00,
2013-05-04 16:01:00,73.3,54.6,29.88,ENE,58,0.0,3.0,52,0.00,,,0.00,Wunderground v.1.15,2013-05-04 20:01:00,
2013-05-04 16:02:00,73.3,54.6,29.88,ENE,61,0.0,3.0,52,0.00,,,0.00,Wunderground v.1.15,2013-05-04 20:02:00,
2013-05-04 16:04:00,73.1,52.8,29.88,NNE,17,0.0,6.0,49,0.00,,,0.00,Wunderground v.1.15,2013-05-04 20:04:00,
2013-05-04 16:05:00,73.2,55.6,29.88,NE,43,5.0,6.0,54,0.00,,,0.00,Wunderground v.1.15,2013-05-04 20:05:00,
2013-05-04 16:06:00,73.3,54.6,29.88,NE,40,0.0,7.0,52,0.00,,,0.00,Wunderground v.1.15,2013-05-04 20:06:00,
2013-05-04 16:07:00,73.4,54.7,29.88,NE,44,0.0,7.0,52,0.00,,,0.00,Wunderground v.1.15,2013-05-04 20:07:00,
2013-05-04 16:09:00,74.0,55.8,29.88,NE,38,4.0,7.0,53,0.00,,,0.00,Wunderground v.1.15,2013-05-04 20:09:00,
2013-05-04 16:10:00,74.1,55.3,29.88,NNE,29,2.0,6.0,52,0.00,,,0.00,Wunderground v.1.15,2013-05-04 20:10:00,
2013-05-04 16:11:00,74.3,54.5,29.88,NNE,28,4.0,9.0,50,0.00,,,0.00,Wunderground v.1.15,2013-05-04 20:11:00,
2013-05-04 16:12:00,74.2,54.4,29.88,NNE,22,5.0,9.0,50,0.00,,,0.00,Wunderground v.1.15,2013-05-04 20:12:00,
2013-05-04 16:14:00,74.3,55.5,29.88,South,177,0.0,9.0,52,0.00,,,0.00,Wunderground v.1.15,2013-05-04 20:14:00,
2013-05-04 16:15:00,74.4,56.2,29.88,ESE,117,1.0,9.0,53,0.00,,,0.00,Wunderground v.1.15,2013-05-04 20:15:00,
2013-05-04 16:17:00,74.4,55.6,29.88,ESE,113,0.0,9.0,52,0.00,,,0.00,Wunderground v.1.15,2013-05-04 20:17:00,
2013-05-04 16:20:00,73.7,56.0,29.88,NNE,31,5.0,5.0,54,0.00,,,0.00,Wunderground v.1.15,2013-05-04 20:20:00,
2013-05-04 16:21:00,73.2,54.5,29.88,NE,52,0.0,5.0,52,0.00,,,0.00,Wunderground v.1.15,2013-05-04 20:21:00,
2013-05-04 16:22:00,73.0,54.9,29.88,ENE,64,2.0,6.0,53,0.00,,,0.00,Wunderground v.1.15,2013-05-04 20:22:00,
2013-05-04 16:25:00,73.2,52.3,29.88,ENE,64,4.0,6.0,48,0.00,,,0.00,Wunderground v.1.15,2013-05-04 20:25:00,
2013-05-04 16:26:00,73.2,52.9,29.88,NNE,13,4.0,6.0,49,0.00,,,0.00,Wunderground v.1.15,2013-05-04 20:26:00,
2013-05-04 16:27:00,73.1,53.9,29.88,NNE,13,0.0,6.0,51,0.00,,,0.00,Wunderground v.1.15,2013-05-04 20:27:00,
2013-05-04 16:30:00,73.3,55.6,29.88,SSW,212,0.0,2.0,54,0.00,,,0.00,Wunderground v.1.15,2013-05-04 20:30:00,
2013-05-04 16:31:00,73.3,55.6,29.87,SSW,212,0.0,2.0,54,0.00,,,0.00,Wunderground v.1.15,2013-05-04 20:31:00,
2013-05-04 16:32:00,73.3,52.4,29.87,SSW,212,0.0,2.0,48,0.00,,,0.00,Wunderground v.1.15,2013-05-04 20:32:00,
2013-05-04 16:36:00,73.2,52.3,29.87,SSW,211,0.0,2.0,48,0.00,,,0.00,Wunderground v.1.15,2013-05-04 20:36:00,
2013-05-04 16:37:00,73.3,52.4,29.87,SSW,211,0.0,2.0,48,0.00,,,0.00,Wunderground v.1.15,2013-05-04 20:37:00,
2013-05-04 16:38:00,73.3,51.8,29.87,SSW,211,0.0,2.0,47,0.00,,,0.00,Wunderground v.1.15,2013-05-04 20:38:00,
2013-05-04 16:41:00,72.7,54.1,29.87,ENE,65,0.0,1.0,52,0.00,,,0.00,Wunderground v.1.15,2013-05-04 20:41:00,
2013-05-04 16:42:00,72.5,52.2,29.87,ENE,66,0.0,1.0,49,0.00,,,0.00,Wunderground v.1.15,2013-05-04 20:42:00,
2013-05-04 16:43:00,72.3,54.2,29.87,NE,46,3.0,5.0,53,0.00,,,0.00,Wunderground v.1.15,2013-05-04 20:43:00,
2013-05-04 16:46:00,71.8,53.7,29.87,NE,46,0.0,5.0,53,0.00,,,0.00,Wunderground v.1.15,2013-05-04 20:46:00,
2013-05-04 16:47:00,71.8,55.3,29.87,NE,46,0.0,5.0,56,0.00,,,0.00,Wunderground v.1.15,2013-05-04 20:47:00,
2013-05-04 16:48:00,71.8,55.3,29.87,NE,46,0.0,5.0,56,0.00,,,0.00,Wunderground v.1.15,2013-05-04 20:48:00,
2013-05-04 16:51:00,71.7,51.5,29.87,NE,46,0.0,2.0,49,0.00,,,0.00,Wunderground v.1.15,2013-05-04 20:51:00,
2013-05-04 16:52:00,71.6,51.4,29.87,NE,46,0.0,2.0,49,0.00,,,0.00,Wunderground v.1.15,2013-05-04 20:52:00,
2013-05-04 16:53:00,71.7,52.1,29.87,NE,46,0.0,2.0,50,0.00,,,0.00,Wunderground v.1.15,2013-05-04 20:53:00,
2013-05-04 16:54:00,71.8,53.2,29.87,NE,46,0.0,2.0,52,0.00,,,0.00,Wunderground v.1.15,2013-05-04 20:54:00,
2013-05-04 16:57:00,71.9,54.9,29.87,NE,46,0.0,2.0,55,0.00,,,0.00,Wunderground v.1.15,2013-05-04 20:57:00,
2013-05-04 16:58:00,71.8,54.8,29.87,NE,46,0.0,3.0,55,0.00,,,0.00,Wunderground v.1.15,2013-05-04 20:58:00,
2013-05-04 16:59:00,71.7,53.7,29.87,NE,49,0.0,3.0,53,0.00,,,0.00,Wunderground v.1.15,2013-05-04 20:59:00,
2013-05-04 17:02:00,71.3,52.8,29.87,ENE,74,0.0,4.0,52,0.00,,,0.00,Wunderground v.1.15,2013-05-04 21:02:00,
2013-05-04 17:03:00,71.2,52.7,29.87,ENE,69,3.0,4.0,52,0.00,,,0.00,Wunderground v.1.15,2013-05-04 21:03:00,
2013-05-04 17:04:00,71.0,53.0,29.87,ENE,68,0.0,4.0,53,0.00,,,0.00,Wunderground v.1.15,2013-05-04 21:04:00,
2013-05-04 17:07:00,70.6,52.6,29.87,ENE,68,0.0,4.0,53,0.00,,,0.00,Wunderground v.1.15,2013-05-04 21:07:00,
2013-05-04 17:08:00,70.6,53.1,29.87,ENE,68,0.0,4.0,54,0.00,,,0.00,Wunderground v.1.15,2013-05-04 21:08:00,
2013-05-04 17:09:00,70.5,51.5,29.87,ENE,68,0.0,4.0,51,0.00,,,0.00,Wunderground v.1.15,2013-05-04 21:09:00,
2013-05-04 17:12:00,70.5,52.5,29.87,ENE,68,0.0,0.0,53,0.00,,,0.00,Wunderground v.1.15,2013-05-04 21:12:00,
2013-05-04 17:13:00,70.5,53.6,29.87,ENE,68,0.0,0.0,55,0.00,,,0.00,Wunderground v.1.15,2013-05-04 21:13:00,
2013-05-04 17:14:00,70.5,54.0,29.87,ENE,68,0.0,0.0,56,0.00,,,0.00,Wunderground v.1.15,2013-05-04 21:14:00,
2013-05-04 17:17:00,70.6,53.6,29.87,ENE,68,0.0,0.0,55,0.00,,,0.00,Wunderground v.1.15,2013-05-04 21:17:00,
2013-05-04 17:18:00,70.8,55.3,29.87,ENE,68,0.0,0.0,58,0.00,,,0.00,Wunderground v.1.15,2013-05-04 21:18:00,
2013-05-04 17:19:00,71.0,54.0,29.87,ENE,68,0.0,0.0,55,0.00,,,0.00,Wunderground v.1.15,2013-05-04 21:19:00,
2013-05-04 17:23:00,71.4,55.4,29.86,ENE,68,0.0,0.0,57,0.00,,,0.00,Wunderground v.1.15,2013-05-04 21:23:00,
2013-05-04 17:24:00,71.4,55.9,29.86,ENE,68,0.0,0.0,58,0.00,,,0.00,Wunderground v.1.15,2013-05-04 21:24:00,
2013-05-04 17:25:00,71.5,55.5,29.86,ENE,68,0.0,0.0,57,0.00,,,0.00,Wunderground v.1.15,2013-05-04 21:25:00,
2013-05-04 17:28:00,71.4,55.4,29.86,ENE,68,0.0,0.0,57,0.00,,,0.00,Wunderground v.1.15,2013-05-04 21:28:00,
2013-05-04 17:29:00,71.3,52.8,29.86,ENE,68,0.0,1.0,52,0.00,,,0.00,Wunderground v.1.15,2013-05-04 21:29:00,
2013-05-04 17:30:00,71.4,52.9,29.86,ENE,68,0.0,0.0,52,0.00,,,0.00,Wunderground v.1.15,2013-05-04 21:30:00,
2013-05-04 17:33:00,71.2,54.2,29.86,ENE,68,0.0,2.0,55,0.00,,,0.00,Wunderground v.1.15,2013-05-04 21:33:00,
2013-05-04 17:34:00,71.1,54.6,29.86,ENE,68,0.0,2.0,56,0.00,,,0.00,Wunderground v.1.15,2013-05-04 21:34:00,
2013-05-04 17:35:00,71.0,54.0,29.86,ENE,68,0.0,2.0,55,0.00,,,0.00,Wunderground v.1.15,2013-05-04 21:35:00,
2013-05-04 17:38:00,70.7,54.2,29.86,ENE,68,0.0,2.0,56,0.00,,,0.00,Wunderground v.1.15,2013-05-04 21:38:00,
2013-05-04 17:39:00,70.6,55.1,29.86,ENE,68,0.0,2.0,58,0.00,,,0.00,Wunderground v.1.15,2013-05-04 21:39:00,
2013-05-04 17:40:00,70.6,54.6,29.86,ENE,68,0.0,0.0,57,0.00,,,0.00,Wunderground v.1.15,2013-05-04 21:40:00,
2013-05-04 17:43:00,70.3,52.4,29.86,NNE,31,0.0,4.0,53,0.00,,,0.00,Wunderground v.1.15,2013-05-04 21:43:00,
2013-05-04 17:44:00,70.3,53.9,29.87,NNE,31,0.0,4.0,56,0.00,,,0.00,Wunderground v.1.15,2013-05-04 21:44:00,
2013-05-04 17:45:00,70.3,53.4,29.87,NNE,32,2.0,4.0,55,0.00,,,0.00,Wunderground v.1.15,2013-05-04 21:45:00,
2013-05-04 17:48:00,70.4,54.4,29.87,NNE,32,0.0,4.0,57,0.00,,,0.00,Wunderground v.1.15,2013-05-04 21:48:00,
2013-05-04 17:49:00,70.5,54.5,29.87,ESE,110,3.0,4.0,57,0.00,,,0.00,Wunderground v.1.15,2013-05-04 21:49:00,
2013-05-04 17:50:00,70.4,54.0,29.87,NE,41,3.0,4.0,56,0.00,,,0.00,Wunderground v.1.15,2013-05-04 21:50:00,
2013-05-04 17:53:00,70.2,53.3,29.87,ENE,75,1.0,5.0,55,0.00,,,0.00,Wunderground v.1.15,2013-05-04 21:53:00,
2013-05-04 17:54:00,70.2,53.8,29.87,NE,34,2.0,5.0,56,0.00,,,0.00,Wunderground v.1.15,2013-05-04 21:54:00,
2013-05-04 17:55:00,70.1,53.2,29.87,NE,42,0.0,5.0,55,0.00,,,0.00,Wunderground v.1.15,2013-05-04 21:55:00,
2013-05-04 17:56:00,70.0,52.6,29.87,NE,42,0.0,5.0,54,0.00,,,0.00,Wunderground v.1.15,2013-05-04 21:56:00,
2013-05-04 17:58:00,69.9,53.0,29.87,ENE,66,0.0,5.0,55,0.00,,,0.00,Wunderground v.1.15,2013-05-04 21:58:00,
2013-05-04 17:59:00,69.8,53.4,29.87,ENE,61,4.0,5.0,56,0.00,,,0.00,Wunderground v.1.15,2013-05-04 21:59:00,
2013-05-04 18:00:00,69.8,53.4,29.87,NE,44,3.0,5.0,56,0.00,,,0.00,Wunderground v.1.15,2013-05-04 22:00:00,
2013-05-04 18:01:00,69.7,52.8,29.87,ENE,73,2.0,5.0,55,0.00,,,0.00,Wunderground v.1.15,2013-05-04 22:01:00,
2013-05-04 18:03:00,69.6,52.7,29.87,NE,36,3.0,6.0,55,0.00,,,0.00,Wunderground v.1.15,2013-05-04 22:03:00,
2013-05-04 18:05:00,69.5,53.1,29.87,NE,50,3.0,6.0,56,0.00,,,0.00,Wunderground v.1.15,2013-05-04 22:05:00,
2013-05-04 18:06:00,69.4,52.5,29.87,NE,48,1.0,6.0,55,0.00,,,0.00,Wunderground v.1.15,2013-05-04 22:06:00,
2013-05-04 18:07:00,69.4,52.5,29.87,NE,50,3.0,6.0,55,0.00,,,0.00,Wunderground v.1.15,2013-05-04 22:07:00,
2013-05-04 18:08:00,69.4,53.0,29.87,NNE,22,0.0,6.0,56,0.00,,,0.00,Wunderground v.1.15,2013-05-04 22:08:00,
2013-05-04 18:10:00,69.4,52.5,29.87,NNE,23,0.0,2.0,55,0.00,,,0.00,Wunderground v.1.15,2013-05-04 22:10:00,
2013-05-04 18:11:00,69.4,53.5,29.87,NNE,23,0.0,2.0,57,0.00,,,0.00,Wunderground v.1.15,2013-05-04 22:11:00,
2013-05-04 18:12:00,69.4,53.0,29.87,NNE,23,0.0,2.0,56,0.00,,,0.00,Wunderground v.1.15,2013-05-04 22:12:00,
2013-05-04 18:13:00,69.4,53.5,29.87,NNE,27,0.0,2.0,57,0.00,,,0.00,Wunderground v.1.15,2013-05-04 22:13:00,
2013-05-04 18:15:00,69.4,53.0,29.87,NNE,27,0.0,2.0,56,0.00,,,0.00,Wunderground v.1.15,2013-05-04 22:15:00,
2013-05-04 18:16:00,69.4,54.0,29.87,NNE,27,0.0,2.0,58,0.00,,,0.00,Wunderground v.1.15,2013-05-04 22:16:00,
2013-05-04 18:17:00,69.4,54.0,29.87,NNE,27,0.0,2.0,58,0.00,,,0.00,Wunderground v.1.15,2013-05-04 22:17:00,
2013-05-04 18:18:00,69.4,53.0,29.87,NNE,27,0.0,2.0,56,0.00,,,0.00,Wunderground v.1.15,2013-05-04 22:18:00,
2013-05-04 18:20:00,69.4,52.5,29.87,NNE,27,0.0,0.0,55,0.00,,,0.00,Wunderground v.1.15,2013-05-04 22:20:00,
2013-05-04 18:21:00,69.4,51.5,29.87,NNE,27,0.0,0.0,53,0.00,,,0.00,Wunderground v.1.15,2013-05-04 22:21:00,
2013-05-04 18:23:00,69.4,53.0,29.87,NNE,27,0.0,0.0,56,0.00,,,0.00,Wunderground v.1.15,2013-05-04 22:23:00,
2013-05-04 18:24:00,69.5,53.1,29.87,WSW,240,0.0,3.0,56,0.00,,,0.00,Wunderground v.1.15,2013-05-04 22:24:00,
2013-05-04 18:25:00,69.5,53.6,29.88,WSW,239,3.0,4.0,57,0.00,,,0.00,Wunderground v.1.15,2013-05-04 22:25:00,
2013-05-04 18:26:00,69.5,53.6,29.87,SW,235,0.0,4.0,57,0.00,,,0.00,Wunderground v.1.15,2013-05-04 22:26:00,
2013-05-04 18:28:00,69.5,54.1,29.87,WNW,285,11.0,12.0,58,0.00,,,0.00,Wunderground v.1.15,2013-05-04 22:28:00,
2013-05-04 18:29:00,69.2,53.8,29.87,West,279,10.0,17.0,58,0.00,,,0.00,Wunderground v.1.15,2013-05-04 22:29:00,
2013-05-04 18:30:00,68.7,53.3,29.87,WNW,303,7.0,11.0,58,0.00,,,0.00,Wunderground v.1.15,2013-05-04 22:30:00,
2013-05-04 18:31:00,68.3,53.4,29.87,WNW,291,11.0,15.0,59,0.00,,,0.00,Wunderground v.1.15,2013-05-04 22:31:00,
2013-05-04 18:32:00,68.1,53.2,29.87,West,269,9.0,15.0,59,0.00,,,0.00,Wunderground v.1.15,2013-05-04 22:32:00,
2013-05-04 18:33:00,67.7,53.3,29.87,West,277,10.0,17.0,60,0.00,,,0.00,Wunderground v.1.15,2013-05-04 22:33:00,
2013-05-04 18:34:00,67.4,53.5,29.87,West,281,13.0,17.0,61,0.00,,,0.00,Wunderground v.1.15,2013-05-04 22:34:00,
2013-05-04 18:35:00,67.2,53.7,29.87,West,278,10.0,17.0,62,0.00,,,0.00,Wunderground v.1.15,2013-05-04 22:35:00,
2013-05-04 18:36:00,67.0,53.5,29.87,West,276,12.0,17.0,62,0.00,,,0.00,Wunderground v.1.15,2013-05-04 22:36:00,
2013-05-04 18:38:00,66.8,53.4,29.87,WNW,285,9.0,18.0,62,0.00,,,0.00,Wunderground v.1.15,2013-05-04 22:38:00,
2013-05-04 18:39:00,66.7,53.7,29.87,WNW,283,9.0,18.0,63,0.00,,,0.00,Wunderground v.1.15,2013-05-04 22:39:00,
2013-05-04 18:40:00,66.6,53.6,29.87,WNW,290,12.0,18.0,63,0.00,,,0.00,Wunderground v.1.15,2013-05-04 22:40:00,
2013-05-04 18:42:00,66.4,53.4,29.87,WNW,283,10.0,18.0,63,0.00,,,0.00,Wunderground v.1.15,2013-05-04 22:42:00,
2013-05-04 18:43:00,66.2,53.2,29.87,WSW,248,7.0,18.0,63,0.00,,,0.00,Wunderground v.1.15,2013-05-04 22:43:00,
2013-05-04 18:44:00,66.0,53.5,29.87,WNW,290,11.0,18.0,64,0.00,,,0.00,Wunderground v.1.15,2013-05-04 22:44:00,
2013-05-04 18:46:00,65.9,52.9,29.87,WNW,285,14.0,18.0,63,0.00,,,0.00,Wunderground v.1.15,2013-05-04 22:46:00,
2013-05-04 18:47:00,66.0,53.5,29.87,WNW,283,11.0,18.0,64,0.00,,,0.00,Wunderground v.1.15,2013-05-04 22:47:00,
2013-05-04 18:48:00,66.0,53.5,29.88,West,267,6.0,18.0,64,0.00,,,0.00,Wunderground v.1.15,2013-05-04 22:48:00,
2013-05-04 18:49:00,66.0,53.5,29.88,West,279,6.0,18.0,64,0.00,,,0.00,Wunderground v.1.15,2013-05-04 22:49:00,
2013-05-04 18:50:00,66.0,53.5,29.87,West,278,10.0,15.0,64,0.00,,,0.00,Wunderground v.1.15,2013-05-04 22:50:00,
2013-05-04 18:51:00,66.0,53.9,29.88,West,262,8.0,15.0,65,0.00,,,0.00,Wunderground v.1.15,2013-05-04 22:51:00,
2013-05-04 18:52:00,66.0,53.5,29.88,West,273,10.0,17.0,64,0.00,,,0.00,Wunderground v.1.15,2013-05-04 22:52:00,
2013-05-04 18:53:00,65.9,53.4,29.88,West,280,12.0,17.0,64,0.00,,,0.00,Wunderground v.1.15,2013-05-04 22:53:00,
2013-05-04 18:54:00,65.9,53.4,29.88,WNW,294,12.0,17.0,64,0.00,,,0.00,Wunderground v.1.15,2013-05-04 22:54:00,
2013-05-04 18:55:00,65.9,53.4,29.88,West,277,8.0,17.0,64,0.00,,,0.00,Wunderground v.1.15,2013-05-04 22:55:00,
2013-05-04 18:56:00,65.8,53.3,29.88,WSW,256,9.0,18.0,64,0.00,,,0.00,Wunderground v.1.15,2013-05-04 22:56:00,
2013-05-04 18:58:00,65.7,53.2,29.88,WSW,256,11.0,18.0,64,0.00,,,0.00,Wunderground v.1.15,2013-05-04 22:58:00,
2013-05-04 18:59:00,65.5,53.0,29.88,West,267,8.0,18.0,64,0.00,,,0.00,Wunderground v.1.15,2013-05-04 22:59:00,
2013-05-04 19:00:00,65.5,53.4,29.88,West,274,14.0,17.0,65,0.00,,,0.00,Wunderground v.1.15,2013-05-04 23:00:00,
2013-05-04 19:01:00,65.4,53.3,29.88,West,278,11.0,17.0,65,0.00,,,0.00,Wunderground v.1.15,2013-05-04 23:01:00,
2013-05-04 19:03:00,65.3,53.2,29.88,WNW,282,10.0,17.0,65,0.00,,,0.00,Wunderground v.1.15,2013-05-04 23:03:00,
2013-05-04 19:04:00,65.4,53.3,29.88,West,273,10.0,17.0,65,0.00,,,0.00,Wunderground v.1.15,2013-05-04 23:04:00,
2013-05-04 19:05:00,65.3,52.8,29.88,West,275,13.0,17.0,64,0.00,,,0.00,Wunderground v.1.15,2013-05-04 23:05:00,
2013-05-04 19:06:00,65.3,53.2,29.88,West,279,12.0,17.0,65,0.00,,,0.00,Wunderground v.1.15,2013-05-04 23:06:00,
2013-05-04 19:08:00,65.3,53.2,29.88,WNW,282,10.0,17.0,65,0.00,,,0.00,Wunderground v.1.15,2013-05-04 23:08:00,
2013-05-04 19:10:00,65.4,53.3,29.88,WNW,289,8.0,12.0,65,0.00,,,0.00,Wunderground v.1.15,2013-05-04 23:10:00,
2013-05-04 19:11:00,65.4,53.3,29.88,West,274,13.0,14.0,65,0.00,,,0.00,Wunderground v.1.15,2013-05-04 23:11:00,
2013-05-04 19:12:00,65.4,53.3,29.88,WNW,284,9.0,14.0,65,0.00,,,0.00,Wunderground v.1.15,2013-05-04 23:12:00,
2013-05-04 19:13:00,65.4,53.7,29.88,West,278,9.0,14.0,66,0.00,,,0.00,Wunderground v.1.15,2013-05-04 23:13:00,
2013-05-04 19:15:00,65.3,53.6,29.88,WNW,287,10.0,14.0,66,0.00,,,0.00,Wunderground v.1.15,2013-05-04 23:15:00,
2013-05-04 19:16:00,65.2,53.6,29.88,WNW,284,11.0,14.0,66,0.00,,,0.00,Wunderground v.1.15,2013-05-04 23:16:00,
2013-05-04 19:17:00,65.1,53.5,29.88,West,281,14.0,14.0,66,0.00,,,0.00,Wunderground v.1.15,2013-05-04 23:17:00,
2013-05-04 19:18:00,65.0,52.9,29.87,West,276,11.0,15.0,65,0.00,,,0.00,Wunderground v.1.15,2013-05-04 23:18:00,
2013-05-04 19:20:00,64.8,53.2,29.88,West,279,8.0,11.0,66,0.00,,,0.00,Wunderground v.1.15,2013-05-04 23:20:00,
2013-05-04 19:21:00,64.8,53.2,29.88,West,281,7.0,11.0,66,0.00,,,0.00,Wunderground v.1.15,2013-05-04 23:21:00,
2013-05-04 19:22:00,64.7,53.1,29.88,West,271,6.0,11.0,66,0.00,,,0.00,Wunderground v.1.15,2013-05-04 23:22:00,
2013-05-04 19:23:00,64.7,53.5,29.88,West,270,9.0,11.0,67,0.00,,,0.00,Wunderground v.1.15,2013-05-04 23:23:00,
2013-05-04 19:24:00,64.7,53.5,29.88,West,260,5.0,11.0,67,0.00,,,0.00,Wunderground v.1.15,2013-05-04 23:24:00,
2013-05-04 19:26:00,64.7,53.5,29.88,West,273,9.0,13.0,67,0.00,,,0.00,Wunderground v.1.15,2013-05-04 23:26:00,
2013-05-04 19:28:00,64.6,53.4,29.88,WSW,256,7.0,13.0,67,0.00,,,0.00,Wunderground v.1.15,2013-05-04 23:28:00,
2013-05-04 19:29:00,64.6,53.4,29.88,West,276,5.0,13.0,67,0.00,,,0.00,Wunderground v.1.15,2013-05-04 23:29:00,
2013-05-04 19:31:00,64.6,53.0,29.88,West,269,5.0,15.0,66,0.00,,,0.00,Wunderground v.1.15,2013-05-04 23:31:00,
2013-05-04 19:33:00,64.5,53.3,29.88,WNW,293,1.0,15.0,67,0.00,,,0.00,Wunderground v.1.15,2013-05-04 23:33:00,
2013-05-04 19:34:00,64.5,53.3,29.88,West,270,5.0,15.0,67,0.00,,,0.00,Wunderground v.1.15,2013-05-04 23:34:00,
2013-05-04 19:36:00,64.5,53.7,29.88,WNW,282,5.0,15.0,68,0.00,,,0.00,Wunderground v.1.15,2013-05-04 23:36:00,
2013-05-04 19:37:00,64.5,53.7,29.88,West,281,6.0,15.0,68,0.00,,,0.00,Wunderground v.1.15,2013-05-04 23:37:00,
2013-05-04 19:38:00,64.5,53.3,29.88,WNW,283,5.0,15.0,67,0.00,,,0.00,Wunderground v.1.15,2013-05-04 23:38:00,
2013-05-04 19:39:00,64.4,53.2,29.88,West,273,6.0,15.0,67,0.00,,,0.00,Wunderground v.1.15,2013-05-04 23:39:00,
2013-05-04 19:40:00,64.4,53.2,29.88,WNW,282,5.0,7.0,67,0.00,,,0.00,Wunderground v.1.15,2013-05-04 23:40:00,
2013-05-04 19:41:00,64.3,53.5,29.88,West,277,5.0,9.0,68,0.00,,,0.00,Wunderground v.1.15,2013-05-04 23:41:00,
2013-05-04 19:42:00,64.3,53.5,29.88,West,275,7.0,9.0,68,0.00,,,0.00,Wunderground v.1.15,2013-05-04 23:42:00,
2013-05-04 19:43:00,64.2,53.4,29.88,West,280,7.0,13.0,68,0.00,,,0.00,Wunderground v.1.15,2013-05-04 23:43:00,
2013-05-04 19:44:00,64.1,53.3,29.88,West,278,7.0,13.0,68,0.00,,,0.00,Wunderground v.1.15,2013-05-04 23:44:00,
2013-05-04 19:45:00,64.0,53.2,29.88,West,273,7.0,13.0,68,0.00,,,0.00,Wunderground v.1.15,2013-05-04 23:45:00,
2013-05-04 19:47:00,63.8,52.6,29.88,WNW,282,7.0,13.0,67,0.00,,,0.00,Wunderground v.1.15,2013-05-04 23:47:00,
2013-05-04 19:48:00,63.7,52.9,29.88,West,281,7.0,13.0,68,0.00,,,0.00,Wunderground v.1.15,2013-05-04 23:48:00,
2013-05-04 19:49:00,63.6,52.8,29.88,West,274,2.0,13.0,68,0.00,,,0.00,Wunderground v.1.15,2013-05-04 23:49:00,
2013-05-04 19:51:00,63.6,53.2,29.88,WNW,287,11.0,11.0,69,0.00,,,0.00,Wunderground v.1.15,2013-05-04 23:51:00,
2013-05-04 19:52:00,63.5,53.1,29.89,West,280,7.0,11.0,69,0.00,,,0.00,Wunderground v.1.15,2013-05-04 23:52:00,
2013-05-04 19:53:00,63.4,53.0,29.89,West,279,3.0,11.0,69,0.00,,,0.00,Wunderground v.1.15,2013-05-04 23:53:00,
2013-05-04 19:55:00,63.3,53.0,29.89,WNW,286,7.0,11.0,69,0.00,,,0.00,Wunderground v.1.15,2013-05-04 23:55:00,
2013-05-04 19:56:00,63.2,52.9,29.89,West,266,6.0,11.0,69,0.00,,,0.00,Wunderground v.1.15,2013-05-04 23:56:00,
2013-05-04 19:57:00,63.1,52.8,29.88,WNW,283,6.0,11.0,69,0.00,,,0.00,Wunderground v.1.15,2013-05-04 23:57:00,
2013-05-04 19:59:00,63.0,52.7,29.88,West,280,6.0,11.0,69,0.00,,,0.00,Wunderground v.1.15,2013-05-04 23:59:00,
2013-05-04 20:00:00,62.9,52.6,29.88,West,278,7.0,7.0,69,0.00,,,0.00,Wunderground v.1.15,2013-05-05 00:00:00,
2013-05-04 20:01:00,62.7,52.4,29.89,West,266,8.0,8.0,69,0.00,,,0.00,Wunderground v.1.15,2013-05-05 00:01:00,
2013-05-04 20:02:00,62.6,52.3,29.89,WNW,290,7.0,9.0,69,0.00,,,0.00,Wunderground v.1.15,2013-05-05 00:02:00,
2013-05-04 20:03:00,62.5,52.2,29.88,WNW,289,6.0,9.0,69,0.00,,,0.00,Wunderground v.1.15,2013-05-05 00:03:00,
2013-05-04 20:04:00,62.5,52.2,29.89,West,273,4.0,9.0,69,0.00,,,0.00,Wunderground v.1.15,2013-05-05 00:04:00,
2013-05-04 20:05:00,62.3,52.0,29.88,WNW,287,7.0,9.0,69,0.00,,,0.00,Wunderground v.1.15,2013-05-05 00:05:00,
2013-05-04 20:07:00,62.1,52.2,29.89,WNW,287,0.0,9.0,70,0.00,,,0.00,Wunderground v.1.15,2013-05-05 00:07:00,
2013-05-04 20:08:00,62.1,52.2,29.89,WNW,287,0.0,9.0,70,0.00,,,0.00,Wunderground v.1.15,2013-05-05 00:08:00,
2013-05-04 20:09:00,62.0,52.1,29.89,WNW,287,5.0,9.0,70,0.00,,,0.00,Wunderground v.1.15,2013-05-05 00:09:00,
2013-05-04 20:10:00,62.0,52.1,29.88,WNW,286,0.0,5.0,70,0.00,,,0.00,Wunderground v.1.15,2013-05-05 00:10:00,
2013-05-04 20:12:00,61.8,52.3,29.88,West,277,4.0,6.0,71,0.00,,,0.00,Wunderground v.1.15,2013-05-05 00:12:00,
2013-05-04 20:13:00,61.8,52.3,29.89,West,277,4.0,6.0,71,0.00,,,0.00,Wunderground v.1.15,2013-05-05 00:13:00,
2013-05-04 20:14:00,61.7,52.2,29.89,West,277,4.0,6.0,71,0.00,,,0.00,Wunderground v.1.15,2013-05-05 00:14:00,
2013-05-04 20:15:00,61.6,52.1,29.89,West,277,0.0,6.0,71,0.00,,,0.00,Wunderground v.1.15,2013-05-05 00:15:00,
2013-05-04 20:18:00,61.5,52.0,29.89,West,278,4.0,7.0,71,0.00,,,0.00,Wunderground v.1.15,2013-05-05 00:18:00,
2013-05-04 20:19:00,61.5,52.0,29.89,West,279,4.0,7.0,71,0.00,,,0.00,Wunderground v.1.15,2013-05-05 00:19:00,
2013-05-04 20:20:00,61.4,51.9,29.89,WNW,284,5.0,6.0,71,0.00,,,0.00,Wunderground v.1.15,2013-05-05 00:20:00,
2013-05-04 20:23:00,61.3,52.2,29.90,WNW,285,4.0,6.0,72,0.00,,,0.00,Wunderground v.1.15,2013-05-05 00:23:00,
2013-05-04 20:24:00,61.3,52.2,29.89,WNW,285,3.0,6.0,72,0.00,,,0.00,Wunderground v.1.15,2013-05-05 00:24:00,
2013-05-04 20:25:00,61.2,52.1,29.89,WNW,285,0.0,6.0,72,0.00,,,0.00,Wunderground v.1.15,2013-05-05 00:25:00,
2013-05-04 20:28:00,61.2,52.1,29.90,WNW,285,3.0,6.0,72,0.00,,,0.00,Wunderground v.1.15,2013-05-05 00:28:00,
2013-05-04 20:29:00,61.1,52.0,29.90,WNW,285,3.0,6.0,72,0.00,,,0.00,Wunderground v.1.15,2013-05-05 00:29:00,
2013-05-04 20:31:00,61.1,52.0,29.90,WNW,285,0.0,4.0,72,0.00,,,0.00,Wunderground v.1.15,2013-05-05 00:31:00,
2013-05-04 20:33:00,60.9,51.8,29.90,WNW,287,3.0,4.0,72,0.00,,,0.00,Wunderground v.1.15,2013-05-05 00:33:00,
2013-05-04 20:34:00,60.9,51.8,29.90,WNW,287,4.0,4.0,72,0.00,,,0.00,Wunderground v.1.15,2013-05-05 00:34:00,
2013-05-04 20:35:00,60.9,51.8,29.90,WNW,287,6.0,6.0,72,0.00,,,0.00,Wunderground v.1.15,2013-05-05 00:35:00,
2013-05-04 20:36:00,60.9,51.8,29.90,WNW,287,1.0,6.0,72,0.00,,,0.00,Wunderground v.1.15,2013-05-05 00:36:00,
2013-05-04 20:38:00,60.8,51.7,29.90,WNW,285,6.0,6.0,72,0.00,,,0.00,Wunderground v.1.15,2013-05-05 00:38:00,
2013-05-04 20:39:00,60.8,51.7,29.90,WNW,283,5.0,7.0,72,0.00,,,0.00,Wunderground v.1.15,2013-05-05 00:39:00,
2013-05-04 20:40:00,60.8,52.1,29.90,WNW,286,6.0,7.0,73,0.00,,,0.00,Wunderground v.1.15,2013-05-05 00:40:00,
2013-05-04 20:41:00,60.8,52.1,29.90,WNW,284,6.0,7.0,73,0.00,,,0.00,Wunderground v.1.15,2013-05-05 00:41:00,
2013-05-04 20:43:00,60.7,52.0,29.90,WNW,291,5.0,9.0,73,0.00,,,0.00,Wunderground v.1.15,2013-05-05 00:43:00,
2013-05-04 20:44:00,60.7,52.0,29.90,West,277,6.0,9.0,73,0.00,,,0.00,Wunderground v.1.15,2013-05-05 00:44:00,
2013-05-04 20:45:00,60.7,52.0,29.90,West,271,6.0,9.0,73,0.00,,,0.00,Wunderground v.1.15,2013-05-05 00:45:00,
2013-05-04 20:46:00,60.6,51.9,29.90,West,281,8.0,9.0,73,0.00,,,0.00,Wunderground v.1.15,2013-05-05 00:46:00,
2013-05-04 20:49:00,60.6,51.9,29.90,SW,229,1.0,9.0,73,0.00,,,0.00,Wunderground v.1.15,2013-05-05 00:49:00,
2013-05-04 20:50:00,60.6,51.9,29.90,SW,227,0.0,5.0,73,0.00,,,0.00,Wunderground v.1.15,2013-05-05 00:50:00,
2013-05-04 20:51:00,60.5,51.8,29.91,SW,225,0.0,5.0,73,0.00,,,0.00,Wunderground v.1.15,2013-05-05 00:51:00,
2013-05-04 20:55:00,60.4,51.7,29.91,West,281,7.0,7.0,73,0.00,,,0.00,Wunderground v.1.15,2013-05-05 00:55:00,
2013-05-04 20:57:00,60.3,52.0,29.91,WSW,252,5.0,8.0,74,0.00,,,0.00,Wunderground v.1.15,2013-05-05 00:57:00,
2013-05-04 21:00:00,60.1,52.1,29.90,West,272,12.0,14.0,75,0.00,,,0.00,Wunderground v.1.15,2013-05-05 01:00:00,
2013-05-04 21:01:00,60.1,52.1,29.90,West,281,9.0,14.0,75,0.00,,,0.00,Wunderground v.1.15,2013-05-05 01:01:00,
2013-05-04 21:02:00,60.1,52.1,29.90,West,274,11.0,14.0,75,0.00,,,0.00,Wunderground v.1.15,2013-05-05 01:02:00,
2013-05-04 21:05:00,60.0,52.1,29.92,SSW,213,5.0,14.0,75,0.00,,,0.00,Wunderground v.1.15,2013-05-05 01:05:00,
2013-05-04 21:06:00,60.0,52.1,29.92,SW,226,6.0,14.0,75,0.00,,,0.00,Wunderground v.1.15,2013-05-05 01:06:00,
2013-05-04 21:07:00,59.9,52.0,29.92,SSW,212,6.0,14.0,75,0.00,,,0.00,Wunderground v.1.15,2013-05-05 01:07:00,
2013-05-04 21:10:00,59.7,52.1,29.92,SSW,204,7.0,8.0,76,0.00,,,0.00,Wunderground v.1.15,2013-05-05 01:10:00,
2013-05-04 21:11:00,59.7,52.1,29.92,SW,214,3.0,9.0,76,0.00,,,0.00,Wunderground v.1.15,2013-05-05 01:11:00,
2013-05-04 21:12:00,59.6,52.0,29.92,WNW,294,6.0,11.0,76,0.00,,,0.00,Wunderground v.1.15,2013-05-05 01:12:00,
2013-05-04 21:15:00,59.4,51.8,29.92,WNW,296,7.0,11.0,76,0.00,,,0.00,Wunderground v.1.15,2013-05-05 01:15:00,
2013-05-04 21:16:00,59.3,52.1,29.92,South,188,5.0,11.0,77,0.00,,,0.00,Wunderground v.1.15,2013-05-05 01:16:00,
2013-05-04 21:17:00,59.3,52.1,29.92,SW,215,5.0,11.0,77,0.00,,,0.00,Wunderground v.1.15,2013-05-05 01:17:00,
2013-05-04 21:20:00,59.0,51.8,29.93,SSW,211,6.0,8.0,77,0.00,,,0.00,Wunderground v.1.15,2013-05-05 01:20:00,
2013-05-04 21:21:00,58.9,52.7,29.93,WSW,242,4.0,8.0,80,0.00,,,0.00,Wunderground v.1.15,2013-05-05 01:21:00,
2013-05-04 21:22:00,58.9,51.7,29.93,WSW,238,5.0,8.0,77,0.00,,,0.00,Wunderground v.1.15,2013-05-05 01:22:00,
2013-05-04 21:23:00,58.8,52.0,29.93,SSW,211,6.0,8.0,78,0.00,,,0.00,Wunderground v.1.15,2013-05-05 01:23:00,
2013-05-04 21:25:00,58.6,51.8,29.93,West,267,3.0,14.0,78,0.00,,,0.00,Wunderground v.1.15,2013-05-05 01:25:00,
2013-05-04 21:26:00,58.6,51.8,29.94,WSW,251,4.0,14.0,78,0.00,,,0.00,Wunderground v.1.15,2013-05-05 01:26:00,
2013-05-04 21:27:00,58.6,51.8,29.94,West,263,7.0,14.0,78,0.00,,,0.00,Wunderground v.1.15,2013-05-05 01:27:00,
2013-05-04 21:28:00,58.5,51.7,29.93,SSW,208,7.0,14.0,78,0.00,,,0.00,Wunderground v.1.15,2013-05-05 01:28:00,
2013-05-04 21:31:00,58.4,51.6,29.94,WSW,246,4.0,8.0,78,0.00,,,0.00,Wunderground v.1.15,2013-05-05 01:31:00,
2013-05-04 21:32:00,58.4,51.6,29.94,West,276,5.0,8.0,78,0.00,,,0.00,Wunderground v.1.15,2013-05-05 01:32:00,
2013-05-04 21:33:00,58.4,51.6,29.94,WSW,240,2.0,8.0,78,0.00,,,0.00,Wunderground v.1.15,2013-05-05 01:33:00,
2013-05-04 21:36:00,58.3,51.5,29.94,SSW,211,4.0,8.0,78,0.00,,,0.00,Wunderground v.1.15,2013-05-05 01:36:00,
2013-05-04 21:37:00,58.3,51.5,29.94,SW,219,4.0,8.0,78,0.00,,,0.00,Wunderground v.1.15,2013-05-05 01:37:00,
2013-05-04 21:38:00,58.3,51.5,29.94,SSW,200,2.0,8.0,78,0.00,,,0.00,Wunderground v.1.15,2013-05-05 01:38:00,
2013-05-04 21:41:00,58.2,51.4,29.94,SW,225,6.0,8.0,78,0.00,,,0.00,Wunderground v.1.15,2013-05-05 01:41:00,
2013-05-04 21:42:00,58.2,51.4,29.94,SW,219,7.0,8.0,78,0.00,,,0.00,Wunderground v.1.15,2013-05-05 01:42:00,
2013-05-04 21:43:00,58.2,51.4,29.94,West,279,6.0,9.0,78,0.00,,,0.00,Wunderground v.1.15,2013-05-05 01:43:00,
2013-05-04 21:46:00,58.2,51.4,29.95,SW,215,6.0,9.0,78,0.00,,,0.00,Wunderground v.1.15,2013-05-05 01:46:00,
2013-05-04 21:47:00,58.1,51.3,29.95,WSW,246,4.0,9.0,78,0.00,,,0.00,Wunderground v.1.15,2013-05-05 01:47:00,
2013-05-04 21:48:00,58.1,51.6,29.95,West,260,3.0,9.0,79,0.00,,,0.00,Wunderground v.1.15,2013-05-05 01:48:00,
2013-05-04 21:51:00,58.1,51.6,29.95,NW,304,6.0,9.0,79,0.00,,,0.00,Wunderground v.1.15,2013-05-05 01:51:00,
2013-05-04 21:52:00,58.1,51.6,29.95,SW,221,5.0,9.0,79,0.00,,,0.00,Wunderground v.1.15,2013-05-05 01:52:00,
2013-05-04 21:53:00,58.1,51.6,29.95,SW,230,6.0,9.0,79,0.00,,,0.00,Wunderground v.1.15,2013-05-05 01:53:00,
2013-05-04 21:56:00,58.0,51.5,29.95,SW,233,6.0,9.0,79,0.00,,,0.00,Wunderground v.1.15,2013-05-05 01:56:00,
2013-05-04 21:57:00,58.0,51.5,29.95,WNW,292,9.0,11.0,79,0.00,,,0.00,Wunderground v.1.15,2013-05-05 01:57:00,
2013-05-04 21:58:00,58.0,51.5,29.95,West,278,8.0,14.0,79,0.00,,,0.00,Wunderground v.1.15,2013-05-05 01:58:00,
2013-05-04 21:59:00,57.9,51.4,29.95,WNW,286,8.0,14.0,79,0.00,,,0.00,Wunderground v.1.15,2013-05-05 01:59:00,
2013-05-04 22:01:00,57.9,51.4,29.95,SSW,200,4.0,9.0,79,0.00,,,0.00,Wunderground v.1.15,2013-05-05 02:01:00,
2013-05-04 22:02:00,57.9,51.4,29.96,SSW,202,4.0,9.0,79,0.00,,,0.00,Wunderground v.1.15,2013-05-05 02:02:00,
2013-05-04 22:03:00,57.9,51.8,29.96,SSW,202,7.0,9.0,80,0.00,,,0.00,Wunderground v.1.15,2013-05-05 02:03:00,
2013-05-04 22:04:00,57.8,51.7,29.96,WSW,237,3.0,9.0,80,0.00,,,0.00,Wunderground v.1.15,2013-05-05 02:04:00,
2013-05-04 22:06:00,57.8,51.7,29.95,West,265,4.0,9.0,80,0.00,,,0.00,Wunderground v.1.15,2013-05-05 02:06:00,
2013-05-04 22:07:00,57.8,51.7,29.95,West,279,9.0,9.0,80,0.00,,,0.00,Wunderground v.1.15,2013-05-05 02:07:00,
2013-05-04 22:08:00,57.8,51.7,29.95,West,281,7.0,9.0,80,0.00,,,0.00,Wunderground v.1.15,2013-05-05 02:08:00,
2013-05-04 22:09:00,57.7,51.6,29.95,West,275,8.0,9.0,80,0.00,,,0.00,Wunderground v.1.15,2013-05-05 02:09:00,
2013-05-04 22:12:00,57.7,51.6,29.95,West,259,5.0,14.0,80,0.00,,,0.00,Wunderground v.1.15,2013-05-05 02:12:00,
2013-05-04 22:13:00,57.7,51.6,29.95,WNW,283,12.0,14.0,80,0.00,,,0.00,Wunderground v.1.15,2013-05-05 02:13:00,
2013-05-04 22:14:00,57.7,51.6,29.95,West,272,11.0,14.0,80,0.00,,,0.00,Wunderground v.1.15,2013-05-05 02:14:00,
2013-05-04 22:17:00,57.7,51.6,29.95,WNW,297,6.0,15.0,80,0.00,,,0.00,Wunderground v.1.15,2013-05-05 02:17:00,
2013-05-04 22:19:00,57.8,51.7,29.95,WNW,289,7.0,15.0,80,0.00,,,0.00,Wunderground v.1.15,2013-05-05 02:19:00,
2013-05-04 22:22:00,57.8,51.7,29.95,South,181,6.0,10.0,80,0.00,,,0.00,Wunderground v.1.15,2013-05-05 02:22:00,
2013-05-04 22:24:00,57.9,51.8,29.95,WNW,285,9.0,11.0,80,0.00,,,0.00,Wunderground v.1.15,2013-05-05 02:24:00,
2013-05-04 22:25:00,57.9,51.8,29.95,WNW,284,8.0,14.0,80,0.00,,,0.00,Wunderground v.1.15,2013-05-05 02:25:00,
2013-05-04 22:27:00,57.9,51.8,29.95,West,279,4.0,14.0,80,0.00,,,0.00,Wunderground v.1.15,2013-05-05 02:27:00,
2013-05-04 22:29:00,57.9,51.8,29.95,WSW,238,2.0,14.0,80,0.00,,,0.00,Wunderground v.1.15,2013-05-05 02:29:00,
2013-05-04 22:30:00,57.9,51.8,29.95,West,269,3.0,7.0,80,0.00,,,0.00,Wunderground v.1.15,2013-05-05 02:30:00,
2013-05-04 22:33:00,57.8,51.7,29.95,West,270,7.0,9.0,80,0.00,,,0.00,Wunderground v.1.15,2013-05-05 02:33:00,
2013-05-04 22:34:00,57.8,51.7,29.95,WNW,287,6.0,11.0,80,0.00,,,0.00,Wunderground v.1.15,2013-05-05 02:34:00,
2013-05-04 22:35:00,57.7,51.6,29.95,West,268,5.0,11.0,80,0.00,,,0.00,Wunderground v.1.15,2013-05-05 02:35:00,
2013-05-04 22:38:00,57.6,51.5,29.95,West,269,7.0,11.0,80,0.00,,,0.00,Wunderground v.1.15,2013-05-05 02:38:00,
2013-05-04 22:39:00,57.6,51.8,29.95,West,281,10.0,13.0,81,0.00,,,0.00,Wunderground v.1.15,2013-05-05 02:39:00,
2013-05-04 22:40:00,57.6,51.8,29.95,West,279,7.0,12.0,81,0.00,,,0.00,Wunderground v.1.15,2013-05-05 02:40:00,
2013-05-04 22:43:00,57.5,51.7,29.95,West,269,6.0,12.0,81,0.00,,,0.00,Wunderground v.1.15,2013-05-05 02:43:00,
2013-05-04 22:44:00,57.4,51.6,29.95,West,273,7.0,12.0,81,0.00,,,0.00,Wunderground v.1.15,2013-05-05 02:44:00,
2013-05-04 22:45:00,57.4,51.6,29.95,WNW,285,7.0,12.0,81,0.00,,,0.00,Wunderground v.1.15,2013-05-05 02:45:00,
2013-05-04 22:48:00,57.2,51.4,29.95,West,276,8.0,12.0,81,0.00,,,0.00,Wunderground v.1.15,2013-05-05 02:48:00,
2013-05-04 22:49:00,57.1,51.3,29.95,West,276,7.0,12.0,81,0.00,,,0.00,Wunderground v.1.15,2013-05-05 02:49:00,
2013-05-04 22:50:00,57.1,51.3,29.95,West,275,9.0,9.0,81,0.00,,,0.00,Wunderground v.1.15,2013-05-05 02:50:00,
2013-05-04 22:51:00,57.1,51.3,29.95,West,280,8.0,9.0,81,0.00,,,0.00,Wunderground v.1.15,2013-05-05 02:51:00,
2013-05-04 22:53:00,56.9,51.5,29.95,WNW,286,7.0,10.0,82,0.00,,,0.00,Wunderground v.1.15,2013-05-05 02:53:00,
2013-05-04 22:54:00,56.9,51.5,29.95,WNW,287,0.0,10.0,82,0.00,,,0.00,Wunderground v.1.15,2013-05-05 02:54:00,
2013-05-04 22:55:00,56.9,51.5,29.95,WNW,287,5.0,10.0,82,0.00,,,0.00,Wunderground v.1.15,2013-05-05 02:55:00,
2013-05-04 22:56:00,56.9,51.5,29.95,West,277,9.0,11.0,82,0.00,,,0.00,Wunderground v.1.15,2013-05-05 02:56:00,
2013-05-04 22:58:00,56.9,51.5,29.95,West,274,2.0,11.0,82,0.00,,,0.00,Wunderground v.1.15,2013-05-05 02:58:00,
2013-05-04 22:59:00,56.9,51.5,29.95,SSW,211,3.0,11.0,82,0.00,,,0.00,Wunderground v.1.15,2013-05-05 02:59:00,
2013-05-04 23:00:00,56.9,51.5,29.95,West,281,6.0,6.0,82,0.00,,,0.00,Wunderground v.1.15,2013-05-05 03:00:00,
2013-05-04 23:01:00,56.9,51.5,29.95,West,265,6.0,7.0,82,0.00,,,0.00,Wunderground v.1.15,2013-05-05 03:01:00,
2013-05-04 23:03:00,56.9,51.5,29.95,West,277,7.0,11.0,82,0.00,,,0.00,Wunderground v.1.15,2013-05-05 03:03:00,
2013-05-04 23:05:00,56.9,51.5,29.95,West,275,9.0,11.0,82,0.00,,,0.00,Wunderground v.1.15,2013-05-05 03:05:00,
2013-05-04 23:06:00,56.9,51.5,29.95,West,273,5.0,11.0,82,0.00,,,0.00,Wunderground v.1.15,2013-05-05 03:06:00,
2013-05-04 23:08:00,57.0,51.6,29.95,West,279,9.0,11.0,82,0.00,,,0.00,Wunderground v.1.15,2013-05-05 03:08:00,
2013-05-04 23:10:00,57.0,51.2,29.95,West,280,5.0,7.0,81,0.00,,,0.00,Wunderground v.1.15,2013-05-05 03:10:00,
2013-05-04 23:11:00,57.0,51.2,29.95,WNW,282,0.0,7.0,81,0.00,,,0.00,Wunderground v.1.15,2013-05-05 03:11:00,
2013-05-04 23:14:00,56.9,51.1,29.95,WSW,248,0.0,8.0,81,0.00,,,0.00,Wunderground v.1.15,2013-05-05 03:14:00,
2013-05-04 23:15:00,56.9,51.1,29.95,WSW,254,2.0,8.0,81,0.00,,,0.00,Wunderground v.1.15,2013-05-05 03:15:00,
2013-05-04 23:16:00,56.9,51.1,29.95,SW,229,2.0,8.0,81,0.00,,,0.00,Wunderground v.1.15,2013-05-05 03:16:00,
2013-05-04 23:19:00,56.8,51.0,29.95,WNW,287,7.0,9.0,81,0.00,,,0.00,Wunderground v.1.15,2013-05-05 03:19:00,
2013-05-04 23:20:00,56.8,51.0,29.95,West,275,7.0,9.0,81,0.00,,,0.00,Wunderground v.1.15,2013-05-05 03:20:00,
2013-05-04 23:21:00,56.7,50.9,29.95,West,272,5.0,9.0,81,0.00,,,0.00,Wunderground v.1.15,2013-05-05 03:21:00,
2013-05-04 23:24:00,56.6,51.2,29.94,West,278,6.0,9.0,82,0.00,,,0.00,Wunderground v.1.15,2013-05-05 03:24:00,
2013-05-04 23:25:00,56.6,51.2,29.94,West,281,7.0,9.0,82,0.00,,,0.00,Wunderground v.1.15,2013-05-05 03:25:00,
2013-05-04 23:26:00,56.6,51.2,29.94,West,280,3.0,9.0,82,0.00,,,0.00,Wunderground v.1.15,2013-05-05 03:26:00,
2013-05-04 23:29:00,56.7,51.3,29.94,West,279,4.0,9.0,82,0.00,,,0.00,Wunderground v.1.15,2013-05-05 03:29:00,
2013-05-04 23:30:00,56.7,51.3,29.94,WNW,282,3.0,7.0,82,0.00,,,0.00,Wunderground v.1.15,2013-05-05 03:30:00,
2013-05-04 23:31:00,56.7,51.3,29.94,WNW,282,0.0,7.0,82,0.00,,,0.00,Wunderground v.1.15,2013-05-05 03:31:00,
2013-05-04 23:34:00,56.7,51.3,29.94,WNW,282,4.0,7.0,82,0.00,,,0.00,Wunderground v.1.15,2013-05-05 03:34:00,
2013-05-04 23:36:00,56.7,51.3,29.94,WNW,282,0.0,7.0,82,0.00,,,0.00,Wunderground v.1.15,2013-05-05 03:36:00,
2013-05-04 23:37:00,56.7,51.3,29.94,WNW,282,2.0,7.0,82,0.00,,,0.00,Wunderground v.1.15,2013-05-05 03:37:00,
2013-05-04 23:39:00,56.6,51.5,29.94,WNW,282,4.0,7.0,83,0.00,,,0.00,Wunderground v.1.15,2013-05-05 03:39:00,
2013-05-04 23:41:00,56.6,51.5,29.94,WNW,282,3.0,5.0,83,0.00,,,0.00,Wunderground v.1.15,2013-05-05 03:41:00,
2013-05-04 23:42:00,56.5,51.4,29.94,WNW,282,2.0,5.0,83,0.00,,,0.00,Wunderground v.1.15,2013-05-05 03:42:00,
2013-05-04 23:45:00,56.5,51.4,29.94,WNW,282,0.0,5.0,83,0.00,,,0.00,Wunderground v.1.15,2013-05-05 03:45:00,
2013-05-04 23:46:00,56.4,51.3,29.94,WNW,282,0.0,5.0,83,0.00,,,0.00,Wunderground v.1.15,2013-05-05 03:46:00,
2013-05-04 23:47:00,56.4,51.3,29.94,WNW,282,0.0,5.0,83,0.00,,,0.00,Wunderground v.1.15,2013-05-05 03:47:00,
2013-05-04 23:50:00,56.4,51.3,29.94,WNW,282,0.0,1.0,83,0.00,,,0.00,Wunderground v.1.15,2013-05-05 03:50:00,
2013-05-04 23:51:00,56.3,51.2,29.94,WNW,282,0.0,1.0,83,0.00,,,0.00,Wunderground v.1.15,2013-05-05 03:51:00,
2013-05-04 23:52:00,56.3,51.2,29.94,WNW,282,0.0,1.0,83,0.00,,,0.00,Wunderground v.1.15,2013-05-05 03:52:00,
2013-05-04 23:53:00,56.3,51.2,29.94,WNW,282,0.0,1.0,83,0.00,,,0.00,Wunderground v.1.15,2013-05-05 03:53:00,
2013-05-04 23:55:00,56.3,51.2,29.94,WNW,282,0.0,1.0,83,0.00,,,0.00,Wunderground v.1.15,2013-05-05 03:55:00,
2013-05-04 23:56:00,56.2,51.1,29.94,WNW,283,0.0,6.0,83,0.00,,,0.00,Wunderground v.1.15,2013-05-05 03:56:00,
2013-05-04 23:57:00,56.2,51.1,29.94,WNW,283,0.0,6.0,83,0.00,,,0.00,Wunderground v.1.15,2013-05-05 03:57:00,
2013-05-04 23:58:00,56.2,51.1,29.94,WNW,283,0.0,6.0,83,0.00,,,0.00,Wunderground v.1.15,2013-05-05 03:58:00,
2013-05-04 23:59:00,56.2,51.1,29.94,WNW,283,0.0,6.0,83,0.00,,,0.00,Wunderground v.1.15,2013-05-05 03:59:00,